M I D A S
Marine Information and Data Acquisition System
Tripno 903 of the Zeeleeuw from 2005-05-24 06:47:01 to 2005-05-24 14:47:27
Back to CruiseResearch ActivitiesStationsMapUnderway DataData graphs

EquipmentUnitsComment
TimeDGPSUTC
LatitudeDGPSDM.mWGS84
LongitudeDGPSDM.mWGS84
TemperatureSBE03/SBE38deg celciusITS90
ConductivitySBE21S/mITS90
SalinitySBE21 Practical Salinity Units
ChlorophylAChelsea fluorimeterg/lCalibrated in Aceton
Missing or incorrect values are displayed as -999
Sea surface data collected by the RV Zeeleeuw from 2005-05-24 05:41:57 to 2005-05-24 14:51:47
                                                                                    Next 1000 lines
Time Latitude Longitude Temperature Conductivity Salinity ChlorophylA
2005-05-24 05:42:07 51°13.608 2°56.108 18.8302 0.080832 0.452575 -0.646411
2005-05-24 05:42:12 51°13.597 2°56.107 18.828 0.080832 0.452583 -0.646411
2005-05-24 05:42:17 51°13.597 2°56.107 18.8281 0.080832 0.45259 -0.646411
2005-05-24 05:42:22 51°13.596 2°56.108 18.8252 0.080832 0.45259 -0.646411
2005-05-24 05:42:27 51°13.597 2°56.108 18.8264 0.080832 0.45259 -0.646411
2005-05-24 05:42:32 51°13.597 2°56.108 18.8277 0.080832 0.45259 -0.680121
2005-05-24 05:42:37 51°13.597 2°56.108 18.8279 0.080832 0.452605 -0.646411
2005-05-24 05:42:42 51°13.597 2°56.108 18.8273 0.080832 0.452605 -0.646411
2005-05-24 05:42:47 51°13.597 2°56.108 18.8279 0.080832 0.452598 -0.680121
2005-05-24 05:42:52 51°13.597 2°56.108 18.8269 0.080832 0.452598 -0.680121
2005-05-24 05:42:57 51°13.597 2°56.108 18.8269 0.080832 0.452613 -0.680121
2005-05-24 05:43:02 51°13.597 2°56.109 18.828 0.080832 0.452613 -0.646411
2005-05-24 05:43:07 51°13.598 2°56.109 18.8279 0.080832 0.452613 -0.646411
2005-05-24 05:43:12 51°13.598 2°56.109 18.8261 0.080832 0.45262 -0.680121
2005-05-24 05:43:17 51°13.598 2°56.109 18.8268 0.080832 0.45262 -0.680121
2005-05-24 05:43:22 51°13.598 2°56.109 18.8259 0.080832 0.45262 -0.680121
2005-05-24 05:43:27 51°13.598 2°56.109 18.8264 0.080832 0.45262 -0.680121
2005-05-24 05:43:32 51°13.598 2°56.109 18.8261 0.080832 0.452628 -0.646411
2005-05-24 05:43:37 51°13.598 2°56.109 18.8269 0.080832 0.452635 -0.646411
2005-05-24 05:43:42 51°13.597 2°56.109 18.8256 0.080832 0.452635 -0.646411
2005-05-24 05:43:47 51°13.597 2°56.109 18.8278 0.080832 0.452635 -0.680121
2005-05-24 05:43:52 51°13.597 2°56.109 18.8277 0.080832 0.452635 -0.680121
2005-05-24 05:43:57 51°13.597 2°56.11 18.8271 0.080832 0.452643 -0.680121
2005-05-24 05:44:02 51°13.597 2°56.109 18.8264 0.080832 0.452643 -0.646411
2005-05-24 05:44:07 51°13.597 2°56.109 18.8255 0.080832 0.45265 -0.680121
2005-05-24 05:44:12 51°13.597 2°56.109 18.8249 0.080832 0.452658 -0.680121
2005-05-24 05:44:17 51°13.597 2°56.109 18.8269 0.080832 0.452658 -0.680121
2005-05-24 05:44:22 51°13.597 2°56.109 18.827 0.080832 0.452658 -0.680121
2005-05-24 05:44:27 51°13.597 2°56.109 18.826 0.080832 0.452658 -0.680121
2005-05-24 05:44:32 51°13.597 2°56.109 18.8251 0.080832 0.452665 -0.646411
2005-05-24 05:44:37 51°13.597 2°56.109 18.8238 0.080832 0.452665 -0.646411
2005-05-24 05:44:42 51°13.597 2°56.109 18.8234 0.080832 0.452665 -0.680121
2005-05-24 05:44:47 51°13.597 2°56.109 18.8213 0.080832 0.452673 -0.680121
2005-05-24 05:44:52 51°13.597 2°56.109 18.8218 0.080832 0.452673 -0.680121
2005-05-24 05:44:57 51°13.597 2°56.109 18.8192 0.080832 0.452673 -0.680121
2005-05-24 05:45:02 51°13.597 2°56.109 18.8165 0.080832 0.45268 -0.646411
2005-05-24 05:45:07 51°13.597 2°56.109 18.8182 0.080832 0.45268 -0.646411
2005-05-24 05:45:12 51°13.597 2°56.109 18.8207 0.080832 0.452688 -0.680121
2005-05-24 05:45:17 51°13.597 2°56.109 18.8221 0.080832 0.452688 -0.680121
2005-05-24 05:45:22 51°13.597 2°56.109 18.8246 0.080832 0.452688 -0.680121
2005-05-24 05:45:26 51°13.597 2°56.109 18.8263 0.080832 0.452695 -0.646411
2005-05-24 05:45:32 51°13.597 2°56.109 18.83 0.080832 0.452695 -0.646411
2005-05-24 05:45:37 51°13.597 2°56.109 18.8293 0.080832 0.452703 -0.680121
2005-05-24 05:45:42 51°13.597 2°56.109 18.83 0.080832 0.452703 -0.646411
2005-05-24 05:45:47 51°13.597 2°56.109 18.8297 0.080832 0.452703 -0.646411
2005-05-24 05:45:52 51°13.597 2°56.109 18.831 0.080832 0.452703 -0.646411
2005-05-24 05:45:57 51°13.597 2°56.109 18.8317 0.080832 0.452703 -0.646411
2005-05-24 05:46:02 51°13.597 2°56.109 18.8303 0.080832 0.45271 -0.680121
2005-05-24 05:46:07 51°13.597 2°56.109 18.8345 0.080832 0.452718 -0.680121
2005-05-24 05:46:12 51°13.597 2°56.109 18.8303 0.080832 0.452718 -0.680121
2005-05-24 05:46:17 51°13.597 2°56.109 18.8333 0.080832 0.452725 -0.646411
2005-05-24 05:46:22 51°13.597 2°56.109 18.8307 0.080832 0.452725 -0.646411
2005-05-24 05:46:27 51°13.597 2°56.109 18.8348 0.080832 0.452725 -0.646411
2005-05-24 05:46:32 51°13.597 2°56.109 18.8329 0.080832 0.452725 -0.646411
2005-05-24 05:46:37 51°13.597 2°56.109 18.8351 0.080832 0.452733 -0.680121
2005-05-24 05:46:42 51°13.597 2°56.108 18.8357 0.080832 0.452733 -0.646411
2005-05-24 05:46:47 51°13.597 2°56.108 18.8375 0.080832 0.45274 -0.646411
2005-05-24 05:46:52 51°13.597 2°56.108 18.8376 0.080832 0.45274 -0.646411
2005-05-24 05:46:57 51°13.597 2°56.108 18.8377 0.080832 0.45274 -0.680121
2005-05-24 05:47:02 51°13.597 2°56.109 18.8365 0.080832 0.452748 -0.646411
2005-05-24 05:47:07 51°13.597 2°56.108 18.837 0.080832 0.452748 -0.646411
2005-05-24 05:47:12 51°13.597 2°56.108 18.8404 0.080832 0.452755 -0.646411
2005-05-24 05:47:17 51°13.597 2°56.108 18.8396 0.080832 0.452755 -0.646411
2005-05-24 05:47:22 51°13.597 2°56.108 18.8402 0.080832 0.452755 -0.646411
2005-05-24 05:47:26 51°13.597 2°56.108 18.8403 0.080832 0.452763 -0.680121
2005-05-24 05:47:32 51°13.597 2°56.108 18.8392 0.080832 0.452763 -0.680121
2005-05-24 05:47:37 51°13.597 2°56.108 18.8383 0.080832 0.452771 -0.680121
2005-05-24 05:47:42 51°13.597 2°56.108 18.8374 0.080832 0.452763 -0.680121
2005-05-24 05:47:47 51°13.597 2°56.108 18.8381 0.080832 0.452771 -0.680121
2005-05-24 05:47:52 51°13.597 2°56.108 18.8377 0.080832 0.452771 -0.680121
2005-05-24 05:47:57 51°13.597 2°56.108 18.8369 0.080832 0.452778 -0.680121
2005-05-24 05:48:02 51°13.597 2°56.108 18.8348 0.080832 0.452778 -0.646411
2005-05-24 05:48:07 51°13.597 2°56.108 18.8369 0.080832 0.452786 -0.646411
2005-05-24 05:48:12 51°13.597 2°56.108 18.8362 0.080832 0.452786 -0.680121
2005-05-24 05:48:17 51°13.597 2°56.108 18.8378 0.080832 0.452786 -0.646411
2005-05-24 05:48:22 51°13.597 2°56.108 18.8379 0.080832 0.452786 -0.646411
2005-05-24 05:48:27 51°13.597 2°56.108 18.8383 0.080832 0.452793 -0.646411
2005-05-24 05:48:32 51°13.597 2°56.108 18.8407 0.080832 0.452801 -0.646411
2005-05-24 05:48:37 51°13.597 2°56.108 18.8377 0.080832 0.452801 -0.680121
2005-05-24 05:48:42 51°13.597 2°56.108 18.8378 0.080832 0.452801 -0.646411
2005-05-24 05:48:47 51°13.597 2°56.108 18.8396 0.080832 0.452808 -0.646411
2005-05-24 05:48:52 51°13.597 2°56.108 18.8406 0.080832 0.452808 -0.646411
2005-05-24 05:48:57 51°13.597 2°56.108 18.8394 0.080832 0.452808 -0.646411
2005-05-24 05:49:02 51°13.597 2°56.108 18.8381 0.080832 0.452816 -0.680121
2005-05-24 05:49:06 51°13.597 2°56.108 18.8378 0.080832 0.452816 -0.646411
2005-05-24 05:49:12 51°13.597 2°56.108 18.8372 0.080832 0.452823 -0.646411
2005-05-24 05:49:17 51°13.597 2°56.108 18.8372 0.080832 0.452823 -0.646411
2005-05-24 05:49:22 51°13.597 2°56.108 18.838 0.080832 0.452823 -0.646411
2005-05-24 05:49:27 51°13.597 2°56.108 18.8372 0.080832 0.452823 -0.680121
2005-05-24 05:49:32 51°13.597 2°56.108 18.8398 0.080832 0.452823 -0.646411
2005-05-24 05:49:37 51°13.597 2°56.108 18.8402 0.080832 0.452831 -0.646411
2005-05-24 05:49:42 51°13.597 2°56.108 18.8429 0.080832 0.452838 -0.680121
2005-05-24 05:49:47 51°13.597 2°56.109 18.8413 0.080832 0.452846 -0.680121
2005-05-24 05:49:52 51°13.597 2°56.109 18.843 0.080832 0.452846 -0.680121
2005-05-24 05:49:57 51°13.597 2°56.109 18.8443 0.080832 0.452838 -0.646411
2005-05-24 05:50:02 51°13.597 2°56.109 18.8454 0.080832 0.452846 -0.680121
2005-05-24 05:50:07 51°13.597 2°56.109 18.844 0.080832 0.452846 -0.646411
2005-05-24 05:50:12 51°13.597 2°56.109 18.8453 0.080832 0.452853 -0.646411
2005-05-24 05:50:17 51°13.597 2°56.109 18.8446 0.080832 0.452853 -0.646411
2005-05-24 05:50:22 51°13.597 2°56.109 18.845 0.080832 0.452853 -0.646411
2005-05-24 05:50:27 51°13.597 2°56.109 18.8443 0.080832 0.452861 -0.646411
2005-05-24 05:50:32 51°13.597 2°56.109 18.8434 0.080832 0.452861 -0.680121
2005-05-24 05:50:37 51°13.597 2°56.109 18.8445 0.080832 0.452868 -0.680121
2005-05-24 05:50:42 51°13.597 2°56.109 18.8452 0.080832 0.452868 -0.646411
2005-05-24 05:50:47 51°13.597 2°56.109 18.842 0.080832 0.452868 -0.646411
2005-05-24 05:50:52 51°13.597 2°56.109 18.8407 0.080832 0.452868 -0.646411
2005-05-24 05:50:57 51°13.597 2°56.109 18.8416 0.080832 0.452876 -0.680121
2005-05-24 05:51:02 51°13.597 2°56.109 18.8475 0.080832 0.452876 -0.680121
2005-05-24 05:51:07 51°13.597 2°56.109 18.8407 0.080832 0.452883 -0.612702
2005-05-24 05:51:12 51°13.597 2°56.109 18.8386 0.080832 0.452891 -0.680121
2005-05-24 05:51:17 51°13.597 2°56.109 18.8353 0.080832 0.452891 -0.680121
2005-05-24 05:51:22 51°13.597 2°56.109 18.8346 0.080832 0.452891 -0.680121
2005-05-24 05:51:27 51°13.597 2°56.109 18.8307 0.080832 0.452883 -0.646411
2005-05-24 05:51:32 51°13.597 2°56.109 18.8343 0.080832 0.452898 -0.646411
2005-05-24 05:51:37 51°13.597 2°56.109 18.8369 0.080832 0.452898 -0.646411
2005-05-24 05:51:42 51°13.597 2°56.108 18.838 0.080832 0.452906 -0.646411
2005-05-24 05:51:47 51°13.597 2°56.108 18.8398 0.080832 0.452906 -0.680121
2005-05-24 05:51:52 51°13.597 2°56.109 18.8404 0.080832 0.452906 -0.680121
2005-05-24 05:51:57 51°13.597 2°56.108 18.841 0.080832 0.452906 -0.646411
2005-05-24 05:52:02 51°13.597 2°56.108 18.8416 0.080832 0.452913 -0.646411
2005-05-24 05:52:07 51°13.597 2°56.108 18.8418 0.080832 0.452913 -0.680121
2005-05-24 05:52:12 51°13.597 2°56.108 18.8409 0.080832 0.452913 -0.646411
2005-05-24 05:52:17 51°13.597 2°56.108 18.8419 0.080832 0.452921 -0.646411
2005-05-24 05:52:22 51°13.597 2°56.108 18.8405 0.080832 0.452921 -0.646411
2005-05-24 05:52:26 51°13.597 2°56.108 18.8401 0.080832 0.452921 -0.646411
2005-05-24 05:52:32 51°13.597 2°56.109 18.8449 0.080832 0.452929 -0.680121
2005-05-24 05:52:37 51°13.597 2°56.108 18.8437 0.080832 0.452929 -0.680121
2005-05-24 05:52:42 51°13.597 2°56.108 18.8457 0.080832 0.452929 -0.680121
2005-05-24 05:52:47 51°13.597 2°56.108 18.8458 0.080832 0.452936 -0.646411
2005-05-24 05:52:52 51°13.597 2°56.109 18.8443 0.080832 0.452936 -0.646411
2005-05-24 05:52:57 51°13.597 2°56.109 18.8419 0.080728 0.45234 -0.646411
2005-05-24 05:53:02 51°13.597 2°56.109 18.8409 0.080728 0.45234 -0.680121
2005-05-24 05:53:07 51°13.597 2°56.109 18.8408 0.080832 0.452951 -0.646411
2005-05-24 05:53:12 51°13.597 2°56.109 18.8456 0.080728 0.452347 -0.680121
2005-05-24 05:53:17 51°13.597 2°56.108 18.8459 0.080728 0.452355 -0.646411
2005-05-24 05:53:22 51°13.598 2°56.108 18.8468 0.080728 0.452355 -0.646411
2005-05-24 05:53:27 51°13.598 2°56.108 18.8464 0.080728 0.452362 -0.646411
2005-05-24 05:53:32 51°13.598 2°56.109 18.8473 0.080832 0.452966 -0.646411
2005-05-24 05:53:37 51°13.598 2°56.109 18.8399 0.080728 0.452362 -0.646411
2005-05-24 05:53:42 51°13.598 2°56.109 18.8434 0.080832 0.452966 -0.680121
2005-05-24 05:53:46 51°13.598 2°56.109 18.8363 0.080728 0.45237 -0.646411
2005-05-24 05:53:52 51°13.598 2°56.108 18.8423 0.080728 0.45237 -0.646411
2005-05-24 05:53:57 51°13.598 2°56.108 18.8414 0.080728 0.452377 -0.680121
2005-05-24 05:54:02 51°13.598 2°56.108 18.8475 0.080832 0.452974 -0.646411
2005-05-24 05:54:06 51°13.598 2°56.108 18.8465 0.080832 0.452981 -0.646411
2005-05-24 05:54:12 51°13.598 2°56.109 18.8407 0.080728 0.452385 -0.646411
2005-05-24 05:54:17 51°13.598 2°56.109 18.832 0.080728 0.452392 -0.680121
2005-05-24 05:54:22 51°13.598 2°56.109 18.8361 0.080728 0.452392 -0.680121
2005-05-24 05:54:26 51°13.598 2°56.109 18.8361 0.080728 0.452392 -0.680121
2005-05-24 05:54:32 51°13.598 2°56.108 18.8379 0.080728 0.452392 -0.646411
2005-05-24 05:54:37 51°13.598 2°56.108 18.84 0.080832 0.452996 -0.646411
2005-05-24 05:54:42 51°13.598 2°56.108 18.842 0.080728 0.4524 -0.646411
2005-05-24 05:54:46 51°13.598 2°56.109 18.842 0.080728 0.4524 -0.680121
2005-05-24 05:54:52 51°13.598 2°56.109 18.8411 0.080728 0.4524 -0.680121
2005-05-24 05:54:57 51°13.598 2°56.109 18.842 0.080728 0.4524 -0.646411
2005-05-24 05:55:01 51°13.598 2°56.109 18.8398 0.080728 0.452407 -0.646411
2005-05-24 05:55:06 51°13.598 2°56.109 18.8421 0.080728 0.452415 -0.680121
2005-05-24 05:55:12 51°13.598 2°56.109 18.836 0.080728 0.452415 -0.646411
2005-05-24 05:55:17 51°13.598 2°56.109 18.8328 0.080728 0.452415 -0.646411
2005-05-24 05:55:21 51°13.598 2°56.108 18.8358 0.080728 0.452415 -0.646411
2005-05-24 05:55:26 51°13.598 2°56.108 18.8395 0.080728 0.452415 -0.680121
2005-05-24 05:55:32 51°13.598 2°56.108 18.8436 0.080728 0.452422 -0.680121
2005-05-24 05:55:37 51°13.598 2°56.108 18.8584 0.080728 0.452422 -0.646411
2005-05-24 05:55:42 51°13.598 2°56.108 18.8489 0.080728 0.45243 -0.646411
2005-05-24 05:55:47 51°13.598 2°56.108 18.8494 0.080728 0.45243 -0.646411
2005-05-24 05:55:52 51°13.598 2°56.108 18.8435 0.080728 0.45243 -0.646411
2005-05-24 05:55:57 51°13.598 2°56.108 18.8468 0.080728 0.45243 -0.680121
2005-05-24 05:56:02 51°13.598 2°56.108 18.8421 0.080728 0.452437 -0.680121
2005-05-24 05:56:07 51°13.598 2°56.108 18.8479 0.080728 0.452445 -0.680121
2005-05-24 05:56:12 51°13.598 2°56.108 18.8424 0.080728 0.452445 -0.680121
2005-05-24 05:56:17 51°13.598 2°56.108 18.845 0.080728 0.452445 -0.680121
2005-05-24 05:56:22 51°13.598 2°56.108 18.8449 0.080728 0.452445 -0.680121
2005-05-24 05:56:27 51°13.598 2°56.108 18.8437 0.080728 0.452445 -0.646411
2005-05-24 05:56:32 51°13.598 2°56.108 18.842 0.080728 0.452452 -0.646411
2005-05-24 05:56:37 51°13.598 2°56.108 18.8421 0.080728 0.45246 -0.680121
2005-05-24 05:56:42 51°13.598 2°56.108 18.8457 0.080728 0.452468 -0.680121
2005-05-24 05:56:46 51°13.598 2°56.108 18.8467 0.080728 0.452468 -0.646411
2005-05-24 05:56:52 51°13.598 2°56.108 18.8496 0.080728 0.452468 -0.646411
2005-05-24 05:56:57 51°13.598 2°56.108 18.848 0.080728 0.452475 -0.680121
2005-05-24 05:57:02 51°13.598 2°56.109 18.8478 0.080728 0.452475 -0.646411
2005-05-24 05:57:06 51°13.598 2°56.109 18.8406 0.080728 0.452468 -0.680121
2005-05-24 05:57:12 51°13.598 2°56.109 18.8443 0.080728 0.452483 -0.646411
2005-05-24 05:57:17 51°13.598 2°56.109 18.8428 0.080728 0.452483 -0.646411
2005-05-24 05:57:22 51°13.598 2°56.109 18.8466 0.080728 0.452483 -0.646411
2005-05-24 05:57:26 51°13.598 2°56.109 18.8451 0.080728 0.452483 -0.646411
2005-05-24 05:57:32 51°13.598 2°56.109 18.8446 0.080728 0.45249 -0.680121
2005-05-24 05:57:37 51°13.598 2°56.109 18.8441 0.080728 0.452498 -0.646411
2005-05-24 05:57:42 51°13.598 2°56.109 18.841 0.080728 0.452498 -0.680121
2005-05-24 05:57:46 51°13.598 2°56.109 18.8409 0.080728 0.452505 -0.680121
2005-05-24 05:57:52 51°13.598 2°56.109 18.8405 0.080728 0.452505 -0.680121
2005-05-24 05:57:57 51°13.598 2°56.109 18.8413 0.080728 0.452498 -0.646411
2005-05-24 05:58:02 51°13.598 2°56.109 18.8438 0.080728 0.452505 -0.680121
2005-05-24 05:58:06 51°13.598 2°56.109 18.8445 0.080728 0.452505 -0.71383
2005-05-24 05:58:12 51°13.598 2°56.109 18.8477 0.080728 0.452513 -0.646411
2005-05-24 05:58:17 51°13.598 2°56.109 18.8449 0.080728 0.45252 -0.646411
2005-05-24 05:58:22 51°13.598 2°56.109 18.8446 0.080728 0.45252 -0.646411
2005-05-24 05:58:26 51°13.598 2°56.109 18.8441 0.080728 0.452528 -0.680121
2005-05-24 05:58:32 51°13.598 2°56.109 18.8448 0.080728 0.452528 -0.646411
2005-05-24 05:58:37 51°13.598 2°56.109 18.8422 0.080728 0.452528 -0.646411
2005-05-24 05:58:42 51°13.598 2°56.109 18.8407 0.080728 0.452535 -0.680121
2005-05-24 05:58:46 51°13.598 2°56.109 18.8407 0.080728 0.452535 -0.680121
2005-05-24 05:58:52 51°13.598 2°56.109 18.8403 0.080728 0.452535 -0.680121
2005-05-24 05:58:57 51°13.598 2°56.109 18.8394 0.080728 0.452535 -0.646411
2005-05-24 05:59:02 51°13.598 2°56.109 18.8378 0.080728 0.452543 -0.646411
2005-05-24 05:59:06 51°13.598 2°56.109 18.8385 0.080728 0.452543 -0.680121
2005-05-24 05:59:12 51°13.598 2°56.109 18.8384 0.080728 0.45255 -0.71383
2005-05-24 05:59:17 51°13.598 2°56.109 18.8351 0.080728 0.452558 -0.680121
2005-05-24 05:59:22 51°13.598 2°56.109 18.8362 0.080728 0.452558 -0.680121
2005-05-24 05:59:27 51°13.598 2°56.109 18.8384 0.080728 0.45255 -0.646411
2005-05-24 05:59:32 51°13.598 2°56.109 18.8371 0.080728 0.452558 -0.680121
2005-05-24 05:59:37 51°13.598 2°56.109 18.8367 0.080728 0.452565 -0.680121
2005-05-24 05:59:42 51°13.598 2°56.109 18.8349 0.080728 0.452565 -0.646411
2005-05-24 05:59:47 51°13.598 2°56.109 18.8367 0.080728 0.452565 -0.646411
2005-05-24 05:59:52 51°13.598 2°56.109 18.8412 0.080728 0.452565 -0.646411
2005-05-24 05:59:57 51°13.599 2°56.108 18.8423 0.080728 0.452573 -0.680121
2005-05-24 06:00:02 51°13.599 2°56.109 18.8453 0.080728 0.45258 -0.680121
2005-05-24 06:00:07 51°13.599 2°56.109 18.8464 0.080728 0.452573 -0.646411
2005-05-24 06:00:12 51°13.599 2°56.109 18.8476 0.080728 0.45258 -0.646411
2005-05-24 06:00:17 51°13.599 2°56.109 18.8467 0.080728 0.45258 -0.680121
2005-05-24 06:00:22 51°13.599 2°56.109 18.8471 0.080728 0.45258 -0.680121
2005-05-24 06:00:27 51°13.599 2°56.109 18.8487 0.080728 0.452588 -0.680121
2005-05-24 06:00:32 51°13.599 2°56.109 18.8482 0.080728 0.452588 -0.646411
2005-05-24 06:00:37 51°13.599 2°56.109 18.8505 0.080728 0.452595 -0.646411
2005-05-24 06:00:42 51°13.599 2°56.109 18.8514 0.080728 0.452595 -0.680121
2005-05-24 06:00:47 51°13.599 2°56.109 18.8514 0.080728 0.452603 -0.646411
2005-05-24 06:00:52 51°13.599 2°56.109 18.8501 0.080728 0.452603 -0.646411
2005-05-24 06:00:57 51°13.599 2°56.109 18.8505 0.080728 0.452603 -0.680121
2005-05-24 06:01:02 51°13.599 2°56.108 18.85 0.080728 0.452603 -0.680121
2005-05-24 06:01:07 51°13.599 2°56.108 18.8493 0.080728 0.45261 -0.680121
2005-05-24 06:01:12 51°13.599 2°56.108 18.8499 0.080728 0.452618 -0.646411
2005-05-24 06:01:17 51°13.599 2°56.108 18.8472 0.080728 0.452618 -0.646411
2005-05-24 06:01:22 51°13.599 2°56.108 18.8456 0.080728 0.452618 -0.646411
2005-05-24 06:01:27 51°13.599 2°56.108 18.8427 0.080728 0.452618 -0.680121
2005-05-24 06:01:32 51°13.599 2°56.108 18.8423 0.080728 0.452626 -0.646411
2005-05-24 06:01:37 51°13.599 2°56.108 18.8444 0.080728 0.452626 -0.646411
2005-05-24 06:01:42 51°13.599 2°56.108 18.8433 0.080728 0.452633 -0.680121
2005-05-24 06:01:47 51°13.599 2°56.108 18.8445 0.080728 0.452633 -0.646411
2005-05-24 06:01:52 51°13.599 2°56.108 18.8461 0.080728 0.452633 -0.646411
2005-05-24 06:01:57 51°13.599 2°56.108 18.8477 0.080728 0.452633 -0.646411
2005-05-24 06:02:02 51°13.599 2°56.108 18.847 0.080728 0.452641 -0.680121
2005-05-24 06:02:07 51°13.599 2°56.108 18.8507 0.080728 0.452641 -0.680121
2005-05-24 06:02:12 51°13.599 2°56.108 18.8502 0.080728 0.452648 -0.680121
2005-05-24 06:02:17 51°13.599 2°56.108 18.8513 0.080728 0.452648 -0.680121
2005-05-24 06:02:22 51°13.599 2°56.108 18.8515 0.080728 0.452648 -0.680121
2005-05-24 06:02:27 51°13.599 2°56.108 18.8509 0.080728 0.452648 -0.680121
2005-05-24 06:02:32 51°13.599 2°56.108 18.8488 0.080728 0.452656 -0.646411
2005-05-24 06:02:37 51°13.599 2°56.108 18.8492 0.080728 0.452656 -0.680121
2005-05-24 06:02:42 51°13.599 2°56.108 18.8501 0.080728 0.452663 -0.646411
2005-05-24 06:02:47 51°13.599 2°56.108 18.8508 0.080728 0.452663 -0.680121
2005-05-24 06:02:52 51°13.599 2°56.108 18.8496 0.080728 0.452663 -0.680121
2005-05-24 06:02:57 51°13.599 2°56.108 18.8507 0.080728 0.452663 -0.646411
2005-05-24 06:03:02 51°13.599 2°56.108 18.8509 0.080728 0.452671 -0.646411
2005-05-24 06:03:07 51°13.599 2°56.108 18.8505 0.080728 0.452671 -0.680121
2005-05-24 06:03:12 51°13.599 2°56.108 18.8504 0.080728 0.452678 -0.646411
2005-05-24 06:03:17 51°13.599 2°56.108 18.8504 0.080728 0.452686 -0.646411
2005-05-24 06:03:22 51°13.599 2°56.108 18.8512 0.080728 0.452686 -0.646411
2005-05-24 06:03:27 51°13.599 2°56.108 18.8517 0.080728 0.452678 -0.680121
2005-05-24 06:03:32 51°13.599 2°56.108 18.8529 0.080728 0.452686 -0.646411
2005-05-24 06:03:37 51°13.599 2°56.108 18.8534 0.080728 0.452693 -0.646411
2005-05-24 06:03:42 51°13.599 2°56.108 18.8524 0.080728 0.452693 -0.680121
2005-05-24 06:03:47 51°13.599 2°56.108 18.8501 0.080728 0.452693 -0.680121
2005-05-24 06:03:52 51°13.599 2°56.108 18.851 0.080728 0.452693 -0.680121
2005-05-24 06:03:57 51°13.598 2°56.108 18.8524 0.080728 0.452701 -0.680121
2005-05-24 06:04:02 51°13.598 2°56.108 18.8524 0.080728 0.452693 -0.646411
2005-05-24 06:04:07 51°13.598 2°56.108 18.8571 0.080728 0.452701 -0.680121
2005-05-24 06:04:11 51°13.598 2°56.108 18.8545 0.080728 0.452708 -0.646411
2005-05-24 06:04:17 51°13.598 2°56.108 18.8551 0.080728 0.452708 -0.646411
2005-05-24 06:04:22 51°13.598 2°56.108 18.8539 0.080728 0.452708 -0.646411
2005-05-24 06:04:27 51°13.598 2°56.108 18.8553 0.080728 0.452708 -0.646411
2005-05-24 06:04:32 51°13.598 2°56.108 18.8532 0.080728 0.452716 -0.680121
2005-05-24 06:04:37 51°13.598 2°56.108 18.8521 0.080728 0.452723 -0.646411
2005-05-24 06:04:42 51°13.598 2°56.108 18.8524 0.080728 0.452723 -0.646411
2005-05-24 06:04:47 51°13.598 2°56.108 18.8517 0.080728 0.452723 -0.680121
2005-05-24 06:04:51 51°13.598 2°56.108 18.8521 0.080728 0.452723 -0.680121
2005-05-24 06:04:57 51°13.598 2°56.108 18.8555 0.080728 0.452738 -0.680121
2005-05-24 06:05:02 51°13.598 2°56.108 18.8541 0.080728 0.452731 -0.646411
2005-05-24 06:05:07 51°13.598 2°56.108 18.8549 0.080728 0.452731 -0.646411
2005-05-24 06:05:11 51°13.598 2°56.108 18.8563 0.080728 0.452731 -0.680121
2005-05-24 06:05:17 51°13.598 2°56.108 18.8567 0.080728 0.452738 -0.680121
2005-05-24 06:05:22 51°13.598 2°56.108 18.8586 0.080728 0.452738 -0.680121
2005-05-24 06:05:27 51°13.598 2°56.108 18.8587 0.080728 0.452746 -0.646411
2005-05-24 06:05:32 51°13.598 2°56.108 18.8581 0.080728 0.452746 -0.680121
2005-05-24 06:05:37 51°13.598 2°56.108 18.8586 0.080728 0.452746 -0.680121
2005-05-24 06:05:42 51°13.598 2°56.108 18.8596 0.080728 0.452754 -0.680121
2005-05-24 06:05:47 51°13.598 2°56.108 18.8596 0.080728 0.452761 -0.680121
2005-05-24 06:05:52 51°13.598 2°56.108 18.8585 0.080728 0.452761 -0.680121
2005-05-24 06:05:57 51°13.598 2°56.108 18.8575 0.080728 0.452769 -0.680121
2005-05-24 06:06:02 51°13.598 2°56.108 18.858 0.080728 0.452769 -0.612702
2005-05-24 06:06:07 51°13.598 2°56.108 18.8573 0.080728 0.452769 -0.646411
2005-05-24 06:06:12 51°13.598 2°56.108 18.8582 0.080728 0.452769 -0.680121
2005-05-24 06:06:17 51°13.598 2°56.108 18.857 0.080728 0.452776 -0.646411
2005-05-24 06:06:22 51°13.598 2°56.108 18.8586 0.080728 0.452776 -0.646411
2005-05-24 06:06:27 51°13.598 2°56.108 18.8566 0.080728 0.452784 -0.646411
2005-05-24 06:06:32 51°13.598 2°56.108 18.8573 0.080728 0.452776 -0.680121
2005-05-24 06:06:37 51°13.598 2°56.108 18.856 0.080728 0.452784 -0.680121
2005-05-24 06:06:42 51°13.598 2°56.108 18.8555 0.080728 0.452791 -0.646411
2005-05-24 06:06:47 51°13.598 2°56.108 18.8563 0.080728 0.452784 -0.71383
2005-05-24 06:06:52 51°13.598 2°56.108 18.8568 0.080728 0.452784 -0.71383
2005-05-24 06:06:57 51°13.598 2°56.108 18.8544 0.080728 0.452791 -0.680121
2005-05-24 06:07:02 51°13.598 2°56.108 18.8542 0.080728 0.452791 -0.646411
2005-05-24 06:07:07 51°13.598 2°56.108 18.8512 0.080728 0.452799 -0.646411
2005-05-24 06:07:12 51°13.598 2°56.108 18.8531 0.080728 0.452806 -0.680121
2005-05-24 06:07:17 51°13.598 2°56.108 18.8495 0.080728 0.452806 -0.646411
2005-05-24 06:07:22 51°13.598 2°56.108 18.851 0.080728 0.452806 -0.646411
2005-05-24 06:07:27 51°13.598 2°56.108 18.8517 0.080728 0.452806 -0.680121
2005-05-24 06:07:32 51°13.598 2°56.108 18.8526 0.080728 0.452806 -0.680121
2005-05-24 06:07:37 51°13.598 2°56.108 18.8527 0.080728 0.452814 -0.646411
2005-05-24 06:07:42 51°13.598 2°56.108 18.8529 0.080728 0.452821 -0.680121
2005-05-24 06:07:47 51°13.598 2°56.108 18.8528 0.080728 0.452829 -0.646411
2005-05-24 06:07:51 51°13.598 2°56.108 18.8543 0.080728 0.452829 -0.646411
2005-05-24 06:07:58 51°13.598 2°56.108 18.8524 0.080728 0.452821 -0.646411
2005-05-24 06:08:02 51°13.598 2°56.108 18.8515 0.080728 0.452821 -0.680121
2005-05-24 06:08:07 51°13.598 2°56.108 18.8519 0.080728 0.452829 -0.680121
2005-05-24 06:08:11 51°13.598 2°56.108 18.8506 0.080728 0.452836 -0.646411
2005-05-24 06:08:17 51°13.598 2°56.108 18.8488 0.080728 0.452836 -0.680121
2005-05-24 06:08:22 51°13.598 2°56.108 18.8483 0.080728 0.452836 -0.680121
2005-05-24 06:08:27 51°13.597 2°56.108 18.8471 0.080728 0.452836 -0.646411
2005-05-24 06:08:32 51°13.597 2°56.108 18.8466 0.080728 0.452844 -0.646411
2005-05-24 06:08:37 51°13.597 2°56.108 18.8466 0.080728 0.452844 -0.680121
2005-05-24 06:08:42 51°13.597 2°56.108 18.8467 0.080728 0.452844 -0.646411
2005-05-24 06:08:47 51°13.597 2°56.108 18.8471 0.080728 0.452851 -0.646411
2005-05-24 06:08:52 51°13.597 2°56.108 18.8473 0.080728 0.452851 -0.646411
2005-05-24 06:08:57 51°13.597 2°56.108 18.8498 0.080728 0.452859 -0.680121
2005-05-24 06:09:02 51°13.597 2°56.108 18.8515 0.080624 0.452262 -0.646411
2005-05-24 06:09:07 51°13.597 2°56.107 18.8494 0.080728 0.452859 -0.680121
2005-05-24 06:09:12 51°13.597 2°56.107 18.8503 0.080728 0.452867 -0.680121
2005-05-24 06:09:17 51°13.597 2°56.107 18.8442 0.080728 0.452874 -0.646411
2005-05-24 06:09:22 51°13.597 2°56.108 18.8439 0.080728 0.452874 -0.646411
2005-05-24 06:09:27 51°13.597 2°56.108 18.8473 0.080624 0.45227 -0.646411
2005-05-24 06:09:32 51°13.597 2°56.108 18.8488 0.080728 0.452874 -0.680121
2005-05-24 06:09:37 51°13.597 2°56.108 18.8524 0.080728 0.452874 -0.680121
2005-05-24 06:09:42 51°13.597 2°56.108 18.8547 0.080728 0.452882 -0.646411
2005-05-24 06:09:47 51°13.597 2°56.107 18.857 0.080728 0.452882 -0.680121
2005-05-24 06:09:52 51°13.597 2°56.107 18.8587 0.080728 0.452882 -0.680121
2005-05-24 06:09:57 51°13.597 2°56.108 18.8589 0.080728 0.452882 -0.646411
2005-05-24 06:10:02 51°13.597 2°56.108 18.8594 0.080728 0.452889 -0.680121
2005-05-24 06:10:07 51°13.597 2°56.108 18.8584 0.080728 0.452889 -0.680121
2005-05-24 06:10:12 51°13.597 2°56.107 18.8583 0.080624 0.452292 -0.612702
2005-05-24 06:10:17 51°13.597 2°56.107 18.8569 0.080728 0.452897 -0.680121
2005-05-24 06:10:22 51°13.597 2°56.107 18.8589 0.080728 0.452897 -0.680121
2005-05-24 06:10:27 51°13.596 2°56.107 18.856 0.080728 0.452904 -0.680121
2005-05-24 06:10:31 51°13.596 2°56.107 18.8572 0.080624 0.4523 -0.646411
2005-05-24 06:10:37 51°13.596 2°56.107 18.8568 0.080728 0.452912 -0.680121
2005-05-24 06:10:42 51°13.596 2°56.107 18.8552 0.080728 0.452904 -0.646411
2005-05-24 06:10:47 51°13.596 2°56.107 18.8554 0.080624 0.452315 -0.646411
2005-05-24 06:10:52 51°13.596 2°56.107 18.8522 0.080624 0.452315 -0.646411
2005-05-24 06:10:57 51°13.596 2°56.107 18.851 0.080624 0.452315 -0.680121
2005-05-24 06:11:02 51°13.596 2°56.107 18.8519 0.080624 0.452315 -0.680121
2005-05-24 06:11:07 51°13.596 2°56.107 18.8537 0.080728 0.452919 -0.680121
2005-05-24 06:11:12 51°13.596 2°56.107 18.8529 0.080624 0.452322 -0.680121
2005-05-24 06:11:17 51°13.596 2°56.107 18.8522 0.080624 0.45233 -0.646411
2005-05-24 06:11:22 51°13.596 2°56.106 18.8492 0.080624 0.45233 -0.646411
2005-05-24 06:11:27 51°13.596 2°56.107 18.8494 0.080624 0.45233 -0.646411
2005-05-24 06:11:32 51°13.596 2°56.107 18.8507 0.080728 0.452927 -0.680121
2005-05-24 06:11:37 51°13.596 2°56.107 18.8465 0.080624 0.452337 -0.680121
2005-05-24 06:11:45 51°13.596 2°56.107 18.8486 0.080624 0.45233 -0.646411
2005-05-24 06:11:49 51°13.596 2°56.107 18.8477 0.080624 0.452345 -0.680121
2005-05-24 06:11:53 51°13.596 2°56.107 18.8496 0.080624 0.452345 -0.680121
2005-05-24 06:11:57 51°13.596 2°56.107 18.8504 0.080624 0.452345 -0.646411
2005-05-24 06:12:02 51°13.596 2°56.107 18.8516 0.080624 0.452345 -0.646411
2005-05-24 06:12:07 51°13.596 2°56.107 18.8505 0.080624 0.452352 -0.680121
2005-05-24 06:12:12 51°13.596 2°56.107 18.8532 0.080624 0.452345 -0.680121
2005-05-24 06:12:17 51°13.596 2°56.107 18.8573 0.080728 0.452949 -0.680121
2005-05-24 06:12:22 51°13.596 2°56.107 18.8594 0.080728 0.452949 -0.680121
2005-05-24 06:12:27 51°13.596 2°56.107 18.8605 0.080624 0.45236 -0.646411
2005-05-24 06:12:31 51°13.597 2°56.107 18.8605 0.080624 0.45236 -0.680121
2005-05-24 06:12:35 51°13.597 2°56.107 18.8586 0.080624 0.452367 -0.646411
2005-05-24 06:12:41 51°13.597 2°56.107 18.8661 0.080624 0.452375 -0.612702
2005-05-24 06:12:46 51°13.597 2°56.107 18.8645 0.080624 0.45236 -0.646411
2005-05-24 06:12:51 51°13.597 2°56.107 18.8651 0.080624 0.45236 -0.646411
2005-05-24 06:12:56 51°13.597 2°56.107 18.8658 0.080624 0.452375 -0.646411
2005-05-24 06:13:01 51°13.597 2°56.107 18.866 0.080624 0.452382 -0.612702
2005-05-24 06:13:06 51°13.597 2°56.107 18.8668 0.080728 0.45298 -0.646411
2005-05-24 06:13:11 51°13.597 2°56.107 18.8634 0.080624 0.452382 -0.646411
2005-05-24 06:13:16 51°13.597 2°56.107 18.8634 0.080624 0.45239 -0.680121
2005-05-24 06:13:22 51°13.597 2°56.107 18.8647 0.080624 0.45239 -0.680121
2005-05-24 06:13:26 51°13.597 2°56.107 18.8656 0.080624 0.45239 -0.646411
2005-05-24 06:13:31 51°13.597 2°56.107 18.8655 0.080624 0.452398 -0.680121
2005-05-24 06:13:36 51°13.597 2°56.107 18.8685 0.080624 0.452398 -0.646411
2005-05-24 06:13:42 51°13.597 2°56.107 18.8666 0.080624 0.452398 -0.680121
2005-05-24 06:13:46 51°13.597 2°56.107 18.87 0.080624 0.452405 -0.680121
2005-05-24 06:13:51 51°13.597 2°56.107 18.8653 0.080624 0.452405 -0.680121
2005-05-24 06:13:56 51°13.597 2°56.107 18.8668 0.080624 0.452398 -0.680121
2005-05-24 06:14:02 51°13.597 2°56.107 18.868 0.080624 0.452413 -0.646411
2005-05-24 06:14:06 51°13.597 2°56.107 18.8719 0.080624 0.452405 -0.646411
2005-05-24 06:14:11 51°13.597 2°56.108 18.8691 0.080624 0.45242 -0.680121
2005-05-24 06:14:16 51°13.597 2°56.108 18.8752 0.080624 0.452413 -0.680121
2005-05-24 06:14:22 51°13.597 2°56.108 18.8749 0.080624 0.452413 -0.680121
2005-05-24 06:14:26 51°13.598 2°56.108 18.8819 0.080624 0.45242 -0.680121
2005-05-24 06:14:31 51°13.598 2°56.108 18.8755 0.080624 0.452428 -0.646411
2005-05-24 06:14:36 51°13.598 2°56.108 18.8792 0.080624 0.452428 -0.646411
2005-05-24 06:14:41 51°13.598 2°56.108 18.8778 0.080624 0.452435 -0.646411
2005-05-24 06:14:46 51°13.598 2°56.108 18.8684 0.080624 0.452428 -0.646411
2005-05-24 06:14:51 51°13.598 2°56.108 18.8663 0.080624 0.452428 -0.646411
2005-05-24 06:14:56 51°13.598 2°56.108 18.8671 0.080624 0.452443 -0.646411
2005-05-24 06:15:01 51°13.598 2°56.108 18.8678 0.080624 0.452443 -0.646411
2005-05-24 06:15:06 51°13.598 2°56.108 18.8659 0.080624 0.452435 -0.680121
2005-05-24 06:15:11 51°13.598 2°56.108 18.8669 0.080624 0.45245 -0.680121
2005-05-24 06:15:16 51°13.598 2°56.108 18.8622 0.080624 0.45245 -0.646411
2005-05-24 06:15:21 51°13.598 2°56.108 18.8571 0.080624 0.45245 -0.646411
2005-05-24 06:15:26 51°13.598 2°56.108 18.8589 0.080624 0.45245 -0.646411
2005-05-24 06:15:31 51°13.598 2°56.108 18.8574 0.080624 0.45245 -0.680121
2005-05-24 06:15:36 51°13.598 2°56.108 18.8563 0.080624 0.452458 -0.646411
2005-05-24 06:15:42 51°13.598 2°56.108 18.854 0.080624 0.452458 -0.680121
2005-05-24 06:15:46 51°13.598 2°56.108 18.8515 0.080624 0.452465 -0.680121
2005-05-24 06:15:51 51°13.598 2°56.108 18.8535 0.080624 0.452465 -0.680121
2005-05-24 06:15:56 51°13.598 2°56.109 18.8499 0.080624 0.452465 -0.646411
2005-05-24 06:16:02 51°13.598 2°56.109 18.8529 0.080624 0.452473 -0.646411
2005-05-24 06:16:06 51°13.598 2°56.109 18.8548 0.080624 0.452473 -0.612702
2005-05-24 06:16:11 51°13.598 2°56.109 18.8512 0.080624 0.45248 -0.646411
2005-05-24 06:16:15 51°13.598 2°56.109 18.8549 0.080624 0.45248 -0.646411
2005-05-24 06:16:22 51°13.598 2°56.109 18.8517 0.080624 0.45248 -0.646411
2005-05-24 06:16:26 51°13.598 2°56.109 18.8523 0.080624 0.45248 -0.680121
2005-05-24 06:16:31 51°13.598 2°56.109 18.8496 0.080624 0.45248 -0.646411
2005-05-24 06:16:36 51°13.598 2°56.109 18.8488 0.080624 0.452495 -0.646411
2005-05-24 06:16:42 51°13.598 2°56.109 18.8447 0.080624 0.452488 -0.680121
2005-05-24 06:16:46 51°13.598 2°56.109 18.849 0.080624 0.452495 -0.646411
2005-05-24 06:16:51 51°13.598 2°56.109 18.8474 0.080624 0.452495 -0.646411
2005-05-24 06:16:56 51°13.598 2°56.109 18.847 0.080624 0.452503 -0.646411
2005-05-24 06:17:01 51°13.598 2°56.109 18.8551 0.080624 0.452503 -0.646411
2005-05-24 06:17:07 51°13.598 2°56.109 18.8515 0.080624 0.452495 -0.680121
2005-05-24 06:17:11 51°13.598 2°56.109 18.8579 0.080624 0.452503 -0.680121
2005-05-24 06:17:16 51°13.598 2°56.109 18.8582 0.080624 0.452511 -0.612702
2005-05-24 06:17:22 51°13.598 2°56.109 18.8596 0.080624 0.452511 -0.612702
2005-05-24 06:17:26 51°13.598 2°56.109 18.8607 0.080624 0.452518 -0.680121
2005-05-24 06:17:31 51°13.598 2°56.109 18.867 0.080624 0.452518 -0.646411
2005-05-24 06:17:36 51°13.598 2°56.109 18.8715 0.080624 0.452526 -0.680121
2005-05-24 06:17:42 51°13.598 2°56.109 18.8722 0.080624 0.452518 -0.646411
2005-05-24 06:17:46 51°13.598 2°56.109 18.872 0.080624 0.452526 -0.646411
2005-05-24 06:17:51 51°13.598 2°56.109 18.8706 0.080624 0.452526 -0.646411
2005-05-24 06:17:57 51°13.598 2°56.109 18.8716 0.080624 0.452526 -0.680121
2005-05-24 06:18:01 51°13.598 2°56.109 18.8711 0.080624 0.452533 -0.680121
2005-05-24 06:18:06 51°13.598 2°56.109 18.8704 0.080624 0.452533 -0.646411
2005-05-24 06:18:11 51°13.598 2°56.109 18.8675 0.080624 0.452541 -0.646411
2005-05-24 06:18:16 51°13.598 2°56.109 18.8786 0.080624 0.452541 -0.680121
2005-05-24 06:18:21 51°13.598 2°56.109 18.877 0.080624 0.452541 -0.680121
2005-05-24 06:18:26 51°13.598 2°56.109 18.8797 0.080624 0.452556 -0.646411
2005-05-24 06:18:31 51°13.598 2°56.108 18.8818 0.080624 0.452548 -0.646411
2005-05-24 06:18:36 51°13.598 2°56.108 18.8883 0.080624 0.452556 -0.680121
2005-05-24 06:18:42 51°13.598 2°56.108 18.8875 0.080624 0.452563 -0.646411
2005-05-24 06:18:46 51°13.598 2°56.109 18.8828 0.080624 0.452563 -0.646411
2005-05-24 06:18:51 51°13.598 2°56.109 18.8806 0.080624 0.452563 -0.646411
2005-05-24 06:18:56 51°13.598 2°56.109 18.8757 0.080624 0.452563 -0.680121
2005-05-24 06:19:02 51°13.598 2°56.109 18.8833 0.080624 0.452571 -0.680121
2005-05-24 06:19:06 51°13.598 2°56.109 18.8815 0.080624 0.452571 -0.646411
2005-05-24 06:19:11 51°13.598 2°56.109 18.8932 0.080624 0.452578 -0.646411
2005-05-24 06:19:16 51°13.599 2°56.109 18.8891 0.080624 0.452586 -0.680121
2005-05-24 06:19:21 51°13.599 2°56.109 18.8979 0.080624 0.452586 -0.680121
2005-05-24 06:19:26 51°13.598 2°56.109 18.9014 0.080624 0.452586 -0.680121
2005-05-24 06:19:31 51°13.599 2°56.109 18.8982 0.080624 0.452586 -0.680121
2005-05-24 06:19:36 51°13.598 2°56.109 18.898 0.080624 0.452586 -0.680121
2005-05-24 06:19:41 51°13.598 2°56.109 18.8958 0.080624 0.452586 -0.646411
2005-05-24 06:19:46 51°13.598 2°56.109 18.8965 0.080624 0.452593 -0.646411
2005-05-24 06:19:51 51°13.598 2°56.109 18.895 0.080624 0.452593 -0.646411
2005-05-24 06:19:56 51°13.598 2°56.109 18.8965 0.080624 0.452601 -0.680121
2005-05-24 06:20:01 51°13.598 2°56.109 18.8968 0.080624 0.452609 -0.646411
2005-05-24 06:20:06 51°13.598 2°56.109 18.8957 0.080624 0.452616 -0.680121
2005-05-24 06:20:11 51°13.598 2°56.109 18.9012 0.080624 0.452609 -0.680121
2005-05-24 06:20:16 51°13.598 2°56.109 18.9015 0.080624 0.452616 -0.680121
2005-05-24 06:20:21 51°13.599 2°56.109 18.8951 0.080624 0.452616 -0.680121
2005-05-24 06:20:26 51°13.599 2°56.109 18.8935 0.080624 0.452616 -0.680121
2005-05-24 06:20:31 51°13.599 2°56.109 18.8923 0.080624 0.452624 -0.646411
2005-05-24 06:20:35 51°13.599 2°56.109 18.8924 0.080624 0.452624 -0.646411
2005-05-24 06:20:41 51°13.599 2°56.109 18.8896 0.080624 0.452624 -0.680121
2005-05-24 06:20:46 51°13.599 2°56.109 18.8915 0.080624 0.452631 -0.646411
2005-05-24 06:20:51 51°13.599 2°56.109 18.8897 0.080624 0.452631 -0.646411
2005-05-24 06:20:55 51°13.599 2°56.109 18.8889 0.080624 0.452639 -0.646411
2005-05-24 06:21:02 51°13.599 2°56.109 18.8895 0.080624 0.452639 -0.646411
2005-05-24 06:21:06 51°13.599 2°56.109 18.8894 0.080624 0.452646 -0.680121
2005-05-24 06:21:11 51°13.6 2°56.109 18.8932 0.080624 0.452639 -0.646411
2005-05-24 06:21:15 51°13.6 2°56.109 18.8932 0.080624 0.452654 -0.646411
2005-05-24 06:21:21 51°13.6 2°56.109 18.8929 0.080624 0.452654 -0.646411
2005-05-24 06:21:26 51°13.6 2°56.109 18.8875 0.080624 0.452654 -0.680121
2005-05-24 06:21:30 51°13.6 2°56.109 18.8941 0.080624 0.452654 -0.680121
2005-05-24 06:21:35 51°13.6 2°56.109 18.8904 0.080624 0.452661 -0.680121
2005-05-24 06:21:41 51°13.6 2°56.109 18.8909 0.080624 0.452661 -0.646411
2005-05-24 06:21:46 51°13.6 2°56.109 18.8919 0.080624 0.452661 -0.646411
2005-05-24 06:21:50 51°13.6 2°56.109 18.8935 0.080624 0.452661 -0.646411
2005-05-24 06:21:55 51°13.6 2°56.109 18.8929 0.080624 0.452669 -0.646411
2005-05-24 06:22:00 51°13.6 2°56.109 18.8932 0.080624 0.452669 -0.680121
2005-05-24 06:22:06 51°13.6 2°56.109 18.8924 0.080624 0.452669 -0.646411
2005-05-24 06:22:11 51°13.6 2°56.109 18.8902 0.080624 0.452676 -0.646411
2005-05-24 06:22:16 51°13.601 2°56.109 18.8914 0.080624 0.452684 -0.646411
2005-05-24 06:22:21 51°13.601 2°56.109 18.8945 0.080624 0.452684 -0.646411
2005-05-24 06:22:26 51°13.601 2°56.109 18.8966 0.080624 0.452691 -0.680121
2005-05-24 06:22:30 51°13.601 2°56.109 18.8938 0.080624 0.452684 -0.680121
2005-05-24 06:22:35 51°13.601 2°56.109 18.894 0.080624 0.452684 -0.680121
2005-05-24 06:22:41 51°13.6 2°56.109 18.8928 0.080624 0.452699 -0.680121
2005-05-24 06:22:46 51°13.6 2°56.109 18.8887 0.080624 0.452699 -0.646411
2005-05-24 06:22:50 51°13.6 2°56.109 18.8969 0.080624 0.452699 -0.646411
2005-05-24 06:22:56 51°13.6 2°56.109 18.8881 0.080624 0.452699 -0.680121
2005-05-24 06:23:01 51°13.6 2°56.109 18.9025 0.080624 0.452699 -0.680121
2005-05-24 06:23:06 51°13.6 2°56.109 18.919 0.080624 0.452707 -0.646411
2005-05-24 06:23:10 51°13.6 2°56.109 18.9253 0.080624 0.452714 -0.646411
2005-05-24 06:23:16 51°13.6 2°56.109 18.9221 0.080624 0.452714 -0.646411
2005-05-24 06:23:21 51°13.6 2°56.109 18.9199 0.080624 0.452714 -0.646411
2005-05-24 06:23:26 51°13.6 2°56.109 18.9157 0.080624 0.452714 -0.646411
2005-05-24 06:23:30 51°13.6 2°56.109 18.917 0.080624 0.452714 -0.646411
2005-05-24 06:23:35 51°13.6 2°56.109 18.9108 0.080624 0.452722 -0.680121
2005-05-24 06:23:41 51°13.599 2°56.109 18.914 0.080624 0.452722 -0.680121
2005-05-24 06:23:46 51°13.599 2°56.109 18.9096 0.080624 0.452729 -0.680121
2005-05-24 06:23:51 51°13.599 2°56.109 18.9116 0.080624 0.452729 -0.680121
2005-05-24 06:23:56 51°13.599 2°56.109 18.9064 0.080624 0.452729 -0.646411
2005-05-24 06:24:00 51°13.599 2°56.109 18.9088 0.080624 0.452737 -0.680121
2005-05-24 06:24:06 51°13.599 2°56.109 18.908 0.080624 0.452737 -0.680121
2005-05-24 06:24:11 51°13.599 2°56.109 18.908 0.080624 0.452744 -0.646411
2005-05-24 06:24:15 51°13.599 2°56.109 18.9067 0.080624 0.452744 -0.646411
2005-05-24 06:24:21 51°13.599 2°56.109 18.9085 0.080624 0.452744 -0.646411
2005-05-24 06:24:26 51°13.599 2°56.109 18.9083 0.080624 0.452744 -0.680121
2005-05-24 06:24:30 51°13.599 2°56.109 18.9057 0.080624 0.452752 -0.646411
2005-05-24 06:24:35 51°13.599 2°56.109 18.9069 0.080624 0.452752 -0.680121
2005-05-24 06:24:41 51°13.599 2°56.109 18.9059 0.080624 0.452752 -0.680121
2005-05-24 06:24:46 51°13.599 2°56.109 18.9052 0.080624 0.452759 -0.680121
2005-05-24 06:24:50 51°13.599 2°56.109 18.9128 0.080624 0.452759 -0.680121
2005-05-24 06:24:56 51°13.599 2°56.109 18.9157 0.080624 0.452759 -0.680121
2005-05-24 06:25:01 51°13.599 2°56.109 18.9186 0.080624 0.452767 -0.680121
2005-05-24 06:25:06 51°13.599 2°56.109 18.9244 0.080624 0.452774 -0.646411
2005-05-24 06:25:11 51°13.599 2°56.109 18.9271 0.080624 0.452767 -0.646411
2005-05-24 06:25:15 51°13.599 2°56.109 18.936 0.080624 0.452782 -0.680121
2005-05-24 06:25:21 51°13.599 2°56.109 18.9417 0.080624 0.452782 -0.680121
2005-05-24 06:25:26 51°13.599 2°56.109 18.9453 0.080624 0.452774 -0.680121
2005-05-24 06:25:31 51°13.599 2°56.109 18.9416 0.080624 0.45279 -0.680121
2005-05-24 06:25:35 51°13.599 2°56.109 18.9526 0.080624 0.452782 -0.646411
2005-05-24 06:25:41 51°13.599 2°56.109 18.9686 0.080624 0.45279 -0.680121
2005-05-24 06:25:46 51°13.599 2°56.109 18.991 0.080624 0.45279 -0.680121
2005-05-24 06:25:51 51°13.599 2°56.109 18.9929 0.080624 0.45279 -0.680121
2005-05-24 06:25:55 51°13.599 2°56.109 18.9945 0.080624 0.452797 -0.646411
2005-05-24 06:26:01 51°13.599 2°56.109 19.0016 0.080624 0.452797 -0.646411
2005-05-24 06:26:06 51°13.599 2°56.109 19.0032 0.080624 0.452805 -0.646411
2005-05-24 06:26:10 51°13.599 2°56.109 19.0097 0.080624 0.452812 -0.680121
2005-05-24 06:26:15 51°13.599 2°56.11 19.0132 0.080624 0.452812 -0.680121
2005-05-24 06:26:21 51°13.599 2°56.109 19.0243 0.080624 0.452812 -0.680121
2005-05-24 06:26:26 51°13.599 2°56.11 19.038 0.080624 0.452812 -0.646411
2005-05-24 06:26:30 51°13.599 2°56.109 19.0525 0.080624 0.45282 -0.680121
2005-05-24 06:26:36 51°13.598 2°56.109 19.0475 0.08052 0.452222 -0.646411
2005-05-24 06:26:41 51°13.598 2°56.109 19.0503 0.080624 0.452827 -0.680121
2005-05-24 06:26:46 51°13.598 2°56.109 19.0507 0.080624 0.452827 -0.680121
2005-05-24 06:26:51 51°13.598 2°56.109 19.04 0.080624 0.452827 -0.680121
2005-05-24 06:26:55 51°13.598 2°56.109 17.4276 0.08052 0.45223 -0.646411
2005-05-24 06:27:00 51°13.598 2°56.109 16.4668 0.080624 0.452827 -0.646411
2005-05-24 06:27:06 51°13.598 2°56.109 15.7238 0.078545 0.438193 -0.680121
2005-05-24 06:27:11 51°13.597 2°56.109 15.6035 0.133552 0.763892 -0.646411
2005-05-24 06:27:15 51°13.597 2°56.109 15.3419 0.472625 2.874037 2.893076
2005-05-24 06:27:20 51°13.597 2°56.109 15.2126 0.472625 2.874037 2.893076
2005-05-24 06:27:26 51°13.597 2°56.109 15.1184 2.441595 16.769222 4.34258
2005-05-24 06:27:30 51°13.597 2°56.109 14.9858 3.01044 21.401023 3.23017
2005-05-24 06:27:35 51°13.597 2°56.109 14.8504 3.112038 22.700705 2.555982
2005-05-24 06:27:41 51°13.597 2°56.109 14.7317 3.145107 23.48558 3.466136
2005-05-24 06:27:46 51°13.597 2°56.109 14.6913 3.120897 23.647081 5.219024
2005-05-24 06:27:50 51°13.597 2°56.108 14.614 3.120897 23.647081 5.219024
2005-05-24 06:27:56 51°13.597 2°56.107 14.5965 3.024469 23.088635 6.466272
2005-05-24 06:28:01 51°13.597 2°56.106 14.5213 2.965314 22.756985 6.533691
2005-05-24 06:28:06 51°13.598 2°56.105 14.4348 2.939424 22.667276 6.061759
2005-05-24 06:28:10 51°13.598 2°56.104 14.4017 2.940479 22.780443 5.623537
2005-05-24 06:28:15 51°13.598 2°56.102 14.3991 2.961847 23.060155 5.657247
2005-05-24 06:28:21 51°13.599 2°56.099 14.4659 2.961847 23.060155 5.657247
2005-05-24 06:28:26 51°13.599 2°56.096 14.3195 2.975005 23.249774 5.589828
2005-05-24 06:28:30 51°13.6 2°56.094 14.2906 2.980584 23.346831 5.623537
2005-05-24 06:28:36 51°13.601 2°56.09 14.2503 2.98648 23.44298 5.657247
2005-05-24 06:28:41 51°13.602 2°56.086 14.15 3.006059 23.667409 5.724665
2005-05-24 06:28:46 51°13.603 2°56.082 14.1089 3.00785 23.730368 5.758375
2005-05-24 06:28:51 51°13.604 2°56.076 14.0479 3.00785 23.730368 5.758375
2005-05-24 06:28:57 51°13.606 2°56.069 14.0111 3.010271 23.77038 5.792084
2005-05-24 06:29:01 51°13.607 2°56.063 13.9916 3.000481 23.692547 5.825794
2005-05-24 06:29:06 51°13.609 2°56.057 13.945 3.017219 23.879223 5.893212
2005-05-24 06:29:11 51°13.611 2°56.049 13.9348 3.041537 24.132521 6.938204
2005-05-24 06:29:15 51°13.613 2°56.043 13.9144 3.06954 24.429332 7.848358
2005-05-24 06:29:21 51°13.615 2°56.034 13.8927 3.06954 24.429332 7.848358
2005-05-24 06:29:26 51°13.617 2°56.026 13.8724 3.11439 24.86743 8.623674
2005-05-24 06:29:31 51°13.619 2°56.017 13.8549 3.14503 25.177246 9.466409
2005-05-24 06:29:36 51°13.62 2°56.009 13.8582 3.158507 25.325839 10.477691
2005-05-24 06:29:41 51°13.623 2°56 13.8549 3.17188 25.474429 11.556392
2005-05-24 06:29:46 51°13.625 2°55.991 13.8229 3.177777 25.556515 12.399127
2005-05-24 06:29:51 51°13.626 2°55.982 13.8258 3.177777 25.556515 12.399127
2005-05-24 06:29:56 51°13.629 2°55.974 13.8186 3.174619 25.55017 12.871059
2005-05-24 06:30:02 51°13.631 2°55.964 13.7946 3.173882 25.561319 13.511537
2005-05-24 06:30:07 51°13.634 2°55.954 13.7957 3.176093 25.598735 13.781212
2005-05-24 06:30:11 51°13.636 2°55.946 13.7732 3.168091 25.53863 14.286853
2005-05-24 06:30:16 51°13.638 2°55.937 13.7489 3.150928 25.395931 14.421691
2005-05-24 06:30:22 51°13.641 2°55.928 13.7526 3.150928 25.395931 14.421691
2005-05-24 06:30:26 51°13.643 2°55.92 13.741 3.160194 25.490056 14.48911
2005-05-24 06:30:31 51°13.646 2°55.91 13.7277 3.15493 25.451745 14.286853
2005-05-24 06:30:36 51°13.648 2°55.902 13.7315 3.17283 25.620456 14.017178
2005-05-24 06:30:41 51°13.652 2°55.892 13.7458 3.182833 25.722994 13.511537
2005-05-24 06:30:46 51°13.655 2°55.883 13.7418 3.184413 25.74887 13.140734
2005-05-24 06:30:51 51°13.658 2°55.873 13.7235 3.184413 25.74887 13.140734
2005-05-24 06:30:56 51°13.662 2°55.864 13.7282 3.207368 25.964896 12.635093
2005-05-24 06:31:02 51°13.665 2°55.854 13.7044 3.229482 26.172731 12.331708
2005-05-24 06:31:06 51°13.669 2°55.846 13.7071 3.229798 26.183902 11.859777
2005-05-24 06:31:11 51°13.673 2°55.837 13.6971 3.226955 26.165719 11.253007
2005-05-24 06:31:16 51°13.677 2°55.829 13.6991 3.230114 26.196647 11.050751
2005-05-24 06:31:21 51°13.681 2°55.82 13.6906 3.230114 26.196647 11.050751
2005-05-24 06:31:26 51°13.685 2°55.812 13.6882 3.221795 26.122078 10.781076
2005-05-24 06:31:31 51°13.69 2°55.803 13.6773 3.228219 26.184349 10.275435
2005-05-24 06:31:36 51°13.694 2°55.795 13.6823 3.228324 26.194691 9.97205
2005-05-24 06:31:41 51°13.699 2°55.786 13.6662 3.228851 26.204115 9.769794
2005-05-24 06:31:46 51°13.704 2°55.777 13.6594 3.232958 26.247244 9.567537
2005-05-24 06:31:51 51°13.709 2°55.768 13.662 3.232958 26.247244 9.567537
2005-05-24 06:31:56 51°13.714 2°55.76 13.6557 3.238118 26.297758 9.331571
2005-05-24 06:32:02 51°13.719 2°55.75 13.6641 3.256958 25.830848 9.230443
2005-05-24 06:32:06 51°13.723 2°55.743 13.6511 3.255283 26.460382 9.365281
2005-05-24 06:32:11 51°13.728 2°55.735 13.6469 3.269921 26.598367 9.4327
2005-05-24 06:32:16 51°13.733 2°55.728 13.6437 3.271501 26.615236 9.870922
2005-05-24 06:32:21 51°13.739 2°55.721 13.6499 3.271501 26.615236 9.870922
2005-05-24 06:32:26 51°13.744 2°55.714 13.6487 3.274871 26.651415 9.97205
2005-05-24 06:32:31 51°13.749 2°55.707 13.6392 3.284139 26.740191 10.039469
2005-05-24 06:32:36 51°13.755 2°55.7 13.6445 3.292143 26.814434 10.241725
2005-05-24 06:32:42 51°13.761 2°55.694 13.636 3.294354 26.835972 10.376563
2005-05-24 06:32:47 51°13.766 2°55.688 13.6347 3.309625 26.978489 10.443982
2005-05-24 06:32:51 51°13.772 2°55.683 13.6422 3.309625 26.978489 10.443982
2005-05-24 06:32:56 51°13.777 2°55.678 13.6368 3.312785 27.009688 10.578819
2005-05-24 06:33:01 51°13.784 2°55.673 13.6391 3.312574 27.009408 10.578819
2005-05-24 06:33:06 51°13.789 2°55.669 13.636 3.306045 26.953738 10.477691
2005-05-24 06:33:11 51°13.797 2°55.664 13.6342 3.307941 26.971918 10.443982
2005-05-24 06:33:15 51°13.802 2°55.661 13.626 3.310468 26.996882 10.477691
2005-05-24 06:33:21 51°13.81 2°55.656 13.6278 3.310468 26.996882 10.477691
2005-05-24 06:33:26 51°13.817 2°55.653 13.6344 3.308362 26.981114 10.578819
2005-05-24 06:33:31 51°13.824 2°55.65 13.6261 3.304992 26.951244 10.747366
2005-05-24 06:33:36 51°13.831 2°55.648 13.6374 3.300779 26.915392 10.781076
2005-05-24 06:33:42 51°13.839 2°55.646 13.6233 3.295303 26.866528 10.915913
2005-05-24 06:33:46 51°13.845 2°55.644 13.6151 3.292459 26.841956 11.050751
2005-05-24 06:33:51 51°13.852 2°55.643 13.6087 3.292459 26.841956 11.050751
2005-05-24 06:33:55 51°13.858 2°55.642 13.6064 3.286877 26.794838 11.253007
2005-05-24 06:34:02 51°13.867 2°55.642 13.6053 3.288141 26.807307 11.320426
2005-05-24 06:34:06 51°13.873 2°55.642 13.6004 3.287404 26.800659 11.590101
2005-05-24 06:34:11 51°13.88 2°55.642 13.5955 3.289932 26.822381 11.792358
2005-05-24 06:34:16 51°13.886 2°55.643 13.5983 3.290037 26.826014 11.994614
2005-05-24 06:34:22 51°13.893 2°55.645 13.5933 3.290037 26.826014 11.994614
2005-05-24 06:34:26 51°13.9 2°55.646 13.5869 3.29425 26.870468 12.297999
2005-05-24 06:34:31 51°13.906 2°55.648 13.5894 3.301411 26.940494 12.500255
2005-05-24 06:34:36 51°13.913 2°55.651 13.5776 3.316472 27.079765 12.837349
2005-05-24 06:34:42 51°13.919 2°55.654 13.5739 3.323844 27.148563 13.005896
2005-05-24 06:34:46 51°13.924 2°55.656 13.5743 3.32911 27.200527 13.039606
2005-05-24 06:34:51 51°13.93 2°55.659 13.5653 3.32911 27.200527 13.039606
2005-05-24 06:34:56 51°13.934 2°55.662 13.5694 3.328057 27.192092 13.208153
2005-05-24 06:35:01 51°13.937 2°55.664 13.5654 3.340275 27.305881 13.309281
2005-05-24 06:35:06 51°13.94 2°55.666 13.5625 3.341855 27.322366 13.410409
2005-05-24 06:35:11 51°13.941 2°55.666 13.5614 3.351229 27.412708 13.444118
2005-05-24 06:35:15 51°13.942 2°55.666 13.5544 3.353335 27.435634 13.477828
2005-05-24 06:35:21 51°13.942 2°55.665 13.5576 3.353335 27.435634 13.477828
2005-05-24 06:35:26 51°13.941 2°55.662 13.5621 3.358602 27.486093 13.680084
2005-05-24 06:35:31 51°13.94 2°55.658 13.5658 3.369029 27.585016 13.646375
2005-05-24 06:35:35 51°13.939 2°55.654 13.5641 3.370609 27.601555 13.511537
2005-05-24 06:35:41 51°13.938 2°55.646 13.563 3.370188 27.598841 13.3767
2005-05-24 06:35:46 51°13.937 2°55.639 13.5732 3.375138 27.648171 13.410409
2005-05-24 06:35:51 51°13.938 2°55.63 13.5781 3.375138 27.648171 13.410409
2005-05-24 06:35:56 51°13.939 2°55.62 13.5859 3.379983 27.693793 13.208153
2005-05-24 06:36:01 51°13.941 2°55.609 13.6073 3.381037 27.705017 13.140734
2005-05-24 06:36:06 51°13.945 2°55.601 13.6158 3.37714 27.66799 12.668802
2005-05-24 06:36:11 51°13.95 2°55.591 13.6274 3.383038 27.719842 12.601383
2005-05-24 06:36:16 51°13.955 2°55.583 13.6158 3.379457 27.686237 12.432836
2005-05-24 06:36:21 51°13.961 2°55.575 13.6382 3.379457 27.686237 12.432836
2005-05-24 06:36:26 51°13.967 2°55.57 13.6218 3.374717 27.639914 12.297999
2005-05-24 06:36:31 51°13.974 2°55.564 13.5858 3.375665 27.642413 11.960905
2005-05-24 06:36:36 51°13.981 2°55.558 13.5863 3.372083 27.604961 11.724939
2005-05-24 06:36:41 51°13.989 2°55.551 13.5771 3.36471 27.527102 11.354136
2005-05-24 06:36:46 51°13.996 2°55.545 13.5862 3.35028 27.389304 11.253007
2005-05-24 06:36:50 51°14.003 2°55.539 13.5783 3.35028 27.389304 11.253007
2005-05-24 06:36:55 51°14.011 2°55.533 13.5758 3.325003 27.157404 11.185589
2005-05-24 06:37:01 51°14.021 2°55.525 13.5648 3.310153 27.020512 11.253007
2005-05-24 06:37:06 51°14.029 2°55.519 13.5653 3.294987 26.891115 11.387845
2005-05-24 06:37:11 51°14.038 2°55.512 13.5622 3.295514 26.906108 11.65752
2005-05-24 06:37:16 51°14.047 2°55.505 13.5557 3.29246 26.884448 12.028324
2005-05-24 06:37:22 51°14.057 2°55.497 13.5571 3.29246 26.884448 12.028324
2005-05-24 06:37:26 51°14.066 2°55.49 13.5562 3.297199 26.930502 12.264289
2005-05-24 06:37:30 51°14.073 2°55.484 13.5545 3.309627 27.044999 12.297999
2005-05-24 06:37:36 51°14.083 2°55.476 13.5468 3.306994 27.024985 12.466546
2005-05-24 06:37:41 51°14.092 2°55.469 13.5434 3.319632 27.143648 12.601383
2005-05-24 06:37:46 51°14.102 2°55.46 13.5392 3.319421 27.145009 12.466546
2005-05-24 06:37:51 51°14.112 2°55.451 13.5365 3.319421 27.145009 12.466546
2005-05-24 06:37:56 51°14.12 2°55.444 13.5385 3.32237 27.174423 12.601383
2005-05-24 06:38:01 51°14.131 2°55.435 13.5349 3.327215 27.220465 12.331708
2005-05-24 06:38:06 51°14.139 2°55.427 13.5394 3.33048 27.252216 12.297999
2005-05-24 06:38:11 51°14.15 2°55.418 13.5315 3.337221 27.315463 12.297999
2005-05-24 06:38:16 51°14.158 2°55.41 13.537 3.33543 27.303626 11.994614
2005-05-24 06:38:21 51°14.168 2°55.4 13.5311 3.33543 27.303626 11.994614
2005-05-24 06:38:26 51°14.176 2°55.391 13.5324 3.339012 27.338817 11.826067
2005-05-24 06:38:30 51°14.185 2°55.382 13.5328 3.337642 27.328055 11.792358
2005-05-24 06:38:36 51°14.195 2°55.371 13.5333 3.335325 27.309249 11.623811
2005-05-24 06:38:41 51°14.206 2°55.359 13.5375 3.326689 27.232635 11.421554
2005-05-24 06:38:46 51°14.215 2°55.349 13.5342 3.331218 27.275312 11.219298
2005-05-24 06:38:50 51°14.223 2°55.338 13.5345 3.331218 27.275312 11.219298
2005-05-24 06:38:56 51°14.234 2°55.323 13.5409 3.329638 27.260996 11.219298
2005-05-24 06:39:01 51°14.244 2°55.31 13.5359 3.331428 27.278864 11.08446
2005-05-24 06:39:06 51°14.253 2°55.296 13.5387 3.329849 27.265094 11.219298
2005-05-24 06:39:11 51°14.263 2°55.281 13.5375 3.328269 27.250778 11.08446
2005-05-24 06:39:15 51°14.271 2°55.268 13.5363 3.33206 27.285139 11.08446
2005-05-24 06:39:21 51°14.281 2°55.25 13.5298 3.33206 27.285139 11.08446
2005-05-24 06:39:26 51°14.289 2°55.235 13.5298 3.327531 27.244097 10.882204
2005-05-24 06:39:31 51°14.299 2°55.217 13.5265 3.330375 27.269319 10.578819
2005-05-24 06:39:36 51°14.306 2°55.202 13.5284 3.323529 27.206196 10.477691
2005-05-24 06:39:40 51°14.314 2°55.187 13.5283 3.323951 27.210012 10.275435
2005-05-24 06:39:46 51°14.323 2°55.169 13.5248 3.330902 27.272996 10.174306
2005-05-24 06:39:51 51°14.333 2°55.15 13.5242 3.330902 27.272996 10.174306
2005-05-24 06:39:56 51°14.341 2°55.135 13.5169 3.322265 27.195839 10.073178
2005-05-24 06:40:01 51°14.352 2°55.118 13.5135 3.324793 27.220925 9.837212
2005-05-24 06:40:06 51°14.361 2°55.105 13.5111 3.32195 27.196253 9.736084
2005-05-24 06:40:11 51°14.372 2°55.088 13.4966 3.323529 27.212206 9.769794
2005-05-24 06:40:16 51°14.381 2°55.075 13.4974 3.33206 27.290619 9.567537
2005-05-24 06:40:21 51°14.392 2°55.058 13.4855 3.33206 27.290619 9.567537
2005-05-24 06:40:26 51°14.401 2°55.044 13.4775 3.330165 27.272887 9.601247
2005-05-24 06:40:31 51°14.412 2°55.026 13.4726 3.331218 27.284626 9.736084
2005-05-24 06:40:35 51°14.421 2°55.014 13.481 3.339222 27.35885 9.601247
2005-05-24 06:40:41 51°14.434 2°54.996 13.4719 3.347438 27.437226 9.904631
2005-05-24 06:40:46 51°14.445 2°54.984 13.4728 3.359866 27.556117 10.174306
2005-05-24 06:40:50 51°14.455 2°54.971 13.4594 3.359866 27.556117 10.174306
2005-05-24 06:40:55 51°14.467 2°54.957 13.4502 3.368609 27.641627 10.781076
2005-05-24 06:41:01 51°14.482 2°54.939 13.4312 3.379142 27.743486 11.185589
2005-05-24 06:41:06 51°14.494 2°54.927 13.4112 3.381775 27.773015 11.623811
2005-05-24 06:41:10 51°14.507 2°54.916 13.3923 3.386726 27.820283 12.196871
2005-05-24 06:41:16 51°14.525 2°54.902 13.3602 3.39115 27.862777 12.432836
2005-05-24 06:41:21 51°14.54 2°54.891 13.339 3.39115 27.862777 12.432836
2005-05-24 06:41:26 51°14.554 2°54.881 13.3061 3.388727 27.844093 12.668802
2005-05-24 06:41:31 51°14.571 2°54.868 13.2755 3.391255 27.872147 12.904768
2005-05-24 06:41:36 51°14.585 2°54.856 13.268 3.404632 28.002974 13.005896
2005-05-24 06:41:41 51°14.601 2°54.843 13.2379 3.411269 28.075884 13.208153
2005-05-24 06:41:46 51°14.615 2°54.831 13.2401 3.43044 28.268985 13.208153
2005-05-24 06:41:51 51°14.632 2°54.818 13.2251 3.43044 28.268985 13.208153
2005-05-24 06:41:55 51°14.645 2°54.809 13.2152 3.450034 28.465195 13.140734
2005-05-24 06:42:01 51°14.665 2°54.798 13.1991 3.471735 28.685733 12.904768
2005-05-24 06:42:06 51°14.68 2°54.791 13.1945 3.497756 28.949374 12.601383
2005-05-24 06:42:11 51°14.698 2°54.783 13.1932 3.523778 29.206662 12.297999
2005-05-24 06:42:15 51°14.712 2°54.779 13.184 3.540213 29.37448 11.893486
2005-05-24 06:42:21 51°14.731 2°54.772 13.1682 3.540213 29.37448 11.893486
2005-05-24 06:42:26 51°14.746 2°54.767 13.1614 3.549274 29.474032 11.421554
2005-05-24 06:42:31 51°14.765 2°54.762 13.1572 3.562339 29.605856 10.949623
2005-05-24 06:42:35 51°14.778 2°54.758 13.1515 3.569925 29.687879 10.882204
2005-05-24 06:42:41 51°14.799 2°54.753 13.1511 3.572454 29.720869 10.275435
2005-05-24 06:42:46 51°14.814 2°54.748 13.1335 3.576879 29.770196 10.241725
2005-05-24 06:42:50 51°14.829 2°54.743 13.1165 3.576879 29.770196 10.241725
2005-05-24 06:42:56 51°14.848 2°54.735 13.1114 3.58457 29.846723 9.904631
2005-05-24 06:43:01 51°14.863 2°54.729 13.1028 3.58731 29.882971 9.601247
2005-05-24 06:43:06 51°14.88 2°54.72 13.1003 3.592262 29.935464 9.466409
2005-05-24 06:43:10 51°14.894 2°54.712 13.0957 3.590787 29.928506 9.163024
2005-05-24 06:43:16 51°14.912 2°54.701 13.0952 3.59458 29.969702 8.85964
2005-05-24 06:43:21 51°14.93 2°54.69 13.0967 3.59458 29.969702 8.85964
2005-05-24 06:43:26 51°14.944 2°54.682 13.0954 3.595002 29.981528 8.724802
2005-05-24 06:43:31 51°14.96 2°54.672 13.1013 3.599743 30.037656 8.556255
2005-05-24 06:43:36 51°14.977 2°54.663 13.089 3.601219 30.0605 8.252871
2005-05-24 06:43:41 51°14.994 2°54.654 13.0933 3.598058 30.037317 7.915777
2005-05-24 06:43:46 51°15.009 2°54.647 13.084 3.599744 30.059065 7.882067
2005-05-24 06:43:50 51°15.023 2°54.639 13.0809 3.599744 30.059065 7.882067
2005-05-24 06:43:55 51°15.039 2°54.631 13.0794 3.596161 30.02952 7.544973
2005-05-24 06:44:01 51°15.058 2°54.622 13.0679 3.602799 30.092302 7.241589
2005-05-24 06:44:06 51°15.074 2°54.614 13.0641 3.605434 30.117348 7.275298
2005-05-24 06:44:10 51°15.086 2°54.607 13.0656 3.59732 30.043326 7.106751
2005-05-24 06:44:16 51°15.103 2°54.598 13.0784 3.60301 30.097322 6.938204
2005-05-24 06:44:21 51°15.119 2°54.588 13.0635 3.60301 30.097322 6.938204
2005-05-24 06:44:26 51°15.133 2°54.58 13.0696 3.606066 30.12935 6.870785
2005-05-24 06:44:31 51°15.149 2°54.57 13.0725 3.607646 30.148929 6.668529
2005-05-24 06:44:36 51°15.163 2°54.562 13.0793 3.605434 30.131466 6.634819
2005-05-24 06:44:41 51°15.18 2°54.552 13.0859 3.607963 30.160468 6.499982
2005-05-24 06:44:46 51°15.194 2°54.545 13.068 3.609438 30.176623 6.466272
2005-05-24 06:44:51 51°15.211 2°54.536 13.065 3.609438 30.176623 6.466272
2005-05-24 06:44:56 51°15.225 2°54.528 13.074 3.604802 30.133582 6.365144
2005-05-24 06:45:01 51°15.242 2°54.519 13.0684 3.602905 30.116591 6.297725
2005-05-24 06:45:06 51°15.256 2°54.512 13.0601 3.610175 30.17978 6.331435
2005-05-24 06:45:10 51°15.27 2°54.506 13.0691 3.610597 30.183077 6.398853
2005-05-24 06:45:16 51°15.288 2°54.498 13.0597 3.6087 30.164856 6.466272
2005-05-24 06:45:21 51°15.306 2°54.49 13.0584 3.6087 30.164856 6.466272
2005-05-24 06:45:26 51°15.321 2°54.483 13.0454 3.602273 30.105813 6.297725
2005-05-24 06:45:31 51°15.337 2°54.476 13.047 3.609016 30.170865 6.365144
2005-05-24 06:45:35 51°15.351 2°54.468 13.05 3.608911 30.171732 6.297725
2005-05-24 06:45:41 51°15.37 2°54.458 13.05 3.602168 30.112815 6.230306
2005-05-24 06:45:46 51°15.385 2°54.45 13.0426 3.609227 30.180204 6.061759
2005-05-24 06:45:51 51°15.401 2°54.441 13.0479 3.609227 30.180204 6.061759
2005-05-24 06:45:55 51°15.415 2°54.433 13.0441 3.610597 30.194156 5.893212
2005-05-24 06:46:01 51°15.435 2°54.422 13.0432 3.605013 30.146602 5.893212
2005-05-24 06:46:06 51°15.45 2°54.414 13.0374 3.603011 30.131699 5.690956
2005-05-24 06:46:10 51°15.465 2°54.406 13.0428 3.603432 30.138072 5.724665
2005-05-24 06:46:15 51°15.481 2°54.397 13.0497 3.610281 30.202307 5.623537
2005-05-24 06:46:21 51°15.501 2°54.387 13.0472 3.610281 30.202307 5.623537
2005-05-24 06:46:26 51°15.516 2°54.38 13.0546 3.594687 30.059929 5.556118
2005-05-24 06:46:31 51°15.534 2°54.372 13.0501 3.603432 30.143607 5.4887
2005-05-24 06:46:36 51°15.55 2°54.366 13.0484 3.603643 30.14741 5.387571
2005-05-24 06:46:40 51°15.565 2°54.36 13.0488 3.596267 30.079514 5.353862
2005-05-24 06:46:46 51°15.584 2°54.354 13.0338 3.605118 30.16173 5.387571
2005-05-24 06:46:51 51°15.603 2°54.347 13.0424 3.605118 30.16173 5.387571
2005-05-24 06:46:55 51°15.617 2°54.343 13.0414 3.611229 30.216049 5.219024
2005-05-24 06:47:01 51°15.636 2°54.339 13.0479 3.598585 30.096131 5.219024
2005-05-24 06:47:06 51°15.654 2°54.334 13.0361 3.599639 30.104073 5.084187
2005-05-24 06:47:11 51°15.673 2°54.329 13.0315 3.608384 30.186535 5.185315
2005-05-24 06:47:15 51°15.688 2°54.326 13.032 3.602379 30.132589 5.050477
2005-05-24 06:47:21 51°15.707 2°54.321 13.0272 3.602379 30.132589 5.050477
2005-05-24 06:47:26 51°15.725 2°54.316 13.028 3.603643 30.148025 5.084187
2005-05-24 06:47:30 51°15.741 2°54.311 13.0254 3.608595 30.193421 4.949349
2005-05-24 06:47:36 51°15.762 2°54.303 13.0219 3.59553 30.072051 4.88193
2005-05-24 06:47:41 51°15.778 2°54.296 13.0192 3.603538 30.148276 4.814512
2005-05-24 06:47:46 51°15.795 2°54.288 13.0197 3.595214 30.073411 4.814512
2005-05-24 06:47:50 51°15.811 2°54.281 13.0222 3.595214 30.073411 4.814512
2005-05-24 06:47:55 51°15.829 2°54.273 13.0223 3.597427 30.09642 4.713383
2005-05-24 06:48:01 51°15.85 2°54.263 13.0188 3.603222 30.153339 4.713383
2005-05-24 06:48:06 51°15.866 2°54.256 13.0181 3.595741 30.087515 4.814512
2005-05-24 06:48:11 51°15.885 2°54.247 13.023 3.604065 30.166099 4.747093
2005-05-24 06:48:16 51°15.901 2°54.241 13.0207 3.596795 30.100378 4.747093
2005-05-24 06:48:21 51°15.921 2°54.233 13.021 3.596795 30.100378 4.747093
2005-05-24 06:48:26 51°15.937 2°54.228 13.014 3.6028 30.15681 4.713383
2005-05-24 06:48:30 51°15.952 2°54.221 13.0146 3.601009 30.140161 4.713383
2005-05-24 06:48:36 51°15.97 2°54.215 13.0136 3.600272 30.134537 4.645965
2005-05-24 06:48:41 51°15.988 2°54.207 13.0157 3.609333 30.220627 4.645965
2005-05-24 06:48:46 51°16.003 2°54.201 13.0115 3.597954 30.114838 4.679674
2005-05-24 06:48:51 51°16.02 2°54.193 13.0073 3.597954 30.114838 4.679674
2005-05-24 06:48:56 51°16.032 2°54.186 13.0101 3.596479 30.100514 4.747093
2005-05-24 06:49:01 51°16.047 2°54.178 13.0077 3.609649 30.223566 4.645965
2005-05-24 06:49:06 51°16.059 2°54.173 13.0046 3.60986 30.227378 4.679674
2005-05-24 06:49:11 51°16.072 2°54.166 13.0033 3.607436 30.204842 4.679674
2005-05-24 06:49:16 51°16.083 2°54.162 13.0024 3.601325 30.149872 4.645965
2005-05-24 06:49:21 51°16.095 2°54.159 13.0087 3.601325 30.149872 4.645965
2005-05-24 06:49:26 51°16.106 2°54.16 13.0013 3.60849 30.21896 4.747093
2005-05-24 06:49:31 51°16.117 2°54.163 13.0287 3.605224 30.189818 4.747093
2005-05-24 06:49:36 51°16.126 2°54.168 13.0074 3.608069 30.216275 4.88193
2005-05-24 06:49:41 51°16.133 2°54.175 12.997 3.601747 30.157486 4.949349
2005-05-24 06:49:46 51°16.139 2°54.181 12.9967 3.60554 30.195225 4.949349
2005-05-24 06:49:51 51°16.144 2°54.19 12.9931 3.60554 30.195225 4.949349
2005-05-24 06:49:56 51°16.149 2°54.199 12.9917 3.604486 30.184809 4.91564
2005-05-24 06:50:01 51°16.152 2°54.207 12.9798 3.612916 30.261976 4.848221
2005-05-24 06:50:06 51°16.156 2°54.215 12.9783 3.614496 30.274206 5.016768
2005-05-24 06:50:11 51°16.16 2°54.223 12.9753 3.610176 30.231552 4.88193
2005-05-24 06:50:15 51°16.164 2°54.231 12.9737 3.615128 30.281943 4.814512
2005-05-24 06:50:21 51°16.169 2°54.239 12.9697 3.615128 30.281943 4.814512
2005-05-24 06:50:26 51°16.173 2°54.246 12.97 3.610387 30.241542 4.713383
2005-05-24 06:50:31 51°16.179 2°54.254 12.9685 3.607015 30.215117 4.780802
2005-05-24 06:50:36 51°16.183 2°54.26 12.972 3.610387 30.251432 4.679674
2005-05-24 06:50:41 51°16.188 2°54.267 12.9735 3.613021 30.281516 4.612255
2005-05-24 06:50:46 51°16.192 2°54.272 12.9694 3.61418 30.296641 4.645965
2005-05-24 06:50:51 51°16.197 2°54.278 12.9707 3.61418 30.296641 4.645965
2005-05-24 06:50:55 51°16.201 2°54.282 12.9704 3.612073 30.279499 4.679674
2005-05-24 06:51:01 51°16.207 2°54.287 12.9676 3.606067 30.225444 4.578546
2005-05-24 06:51:06 51°16.211 2°54.291 12.974 3.60965 30.261269 4.544836
2005-05-24 06:51:11 51°16.216 2°54.295 12.9703 3.606594 30.233439 4.612255
2005-05-24 06:51:15 51°16.219 2°54.297 12.9694 3.612284 30.286415 4.544836
2005-05-24 06:51:21 51°16.224 2°54.3 12.967 3.612284 30.286415 4.544836
2005-05-24 06:51:26 51°16.228 2°54.301 12.975 3.615023 30.311927 4.578546
2005-05-24 06:51:31 51°16.231 2°54.303 12.9704 3.615656 30.317815 4.578546
2005-05-24 06:51:36 51°16.233 2°54.303 12.9718 3.60533 30.222287 4.544836
2005-05-24 06:51:41 51°16.236 2°54.303 12.9719 3.612705 30.29034 4.511127
2005-05-24 06:51:46 51°16.238 2°54.303 12.9719 3.612073 30.285072 4.511127
2005-05-24 06:51:51 51°16.239 2°54.303 12.9763 3.612073 30.285072 4.511127
2005-05-24 06:51:56 51°16.24 2°54.302 12.9755 3.611757 30.283368 4.477418
2005-05-24 06:52:01 51°16.241 2°54.301 12.9731 3.606805 30.236638 4.477418
2005-05-24 06:52:06 51°16.242 2°54.3 12.9767 3.606594 30.233439 4.511127
2005-05-24 06:52:10 51°16.242 2°54.299 12.9723 3.603855 30.207319 4.544836
2005-05-24 06:52:16 51°16.243 2°54.298 12.9713 3.611757 30.28089 4.578546
2005-05-24 06:52:21 51°16.244 2°54.297 12.9737 3.611757 30.28089 4.578546
2005-05-24 06:52:26 51°16.245 2°54.296 12.9707 3.606594 30.232821 4.511127
2005-05-24 06:52:31 51°16.246 2°54.294 12.9728 3.613338 30.295607 4.544836
2005-05-24 06:52:36 51°16.247 2°54.293 12.9734 3.608385 30.249497 4.544836
2005-05-24 06:52:41 51°16.247 2°54.292 12.9742 3.606594 30.232821 4.511127
2005-05-24 06:52:46 51°16.248 2°54.291 12.9701 3.613232 30.295246 4.544836
2005-05-24 06:52:51 51°16.249 2°54.289 12.9757 3.613232 30.295246 4.544836
2005-05-24 06:52:55 51°16.249 2°54.288 12.9709 3.609439 30.259926 4.578546
2005-05-24 06:53:01 51°16.25 2°54.287 12.9702 3.615761 30.318796 4.511127
2005-05-24 06:53:06 51°16.251 2°54.285 12.9705 3.60533 30.221669 4.477418
2005-05-24 06:53:11 51°16.251 2°54.283 12.9709 3.613338 30.295607 4.578546
2005-05-24 06:53:16 51°16.252 2°54.282 12.9703 3.614391 30.306659 4.511127
2005-05-24 06:53:21 51°16.252 2°54.28 12.9692 3.614391 30.306659 4.511127
2005-05-24 06:53:26 51°16.253 2°54.278 12.9715 3.61397 30.303974 4.578546
2005-05-24 06:53:31 51°16.253 2°54.276 12.9728 3.610071 30.266431 4.578546
2005-05-24 06:53:36 51°16.254 2°54.275 12.9705 3.613338 30.297466 4.578546
2005-05-24 06:53:41 51°16.254 2°54.273 12.9713 3.614918 30.312186 4.544836
2005-05-24 06:53:46 51°16.254 2°54.271 12.9733 3.61123 30.278462 4.578546
2005-05-24 06:53:51 51°16.254 2°54.269 12.9682 3.61123 30.278462 4.578546
2005-05-24 06:53:56 51°16.254 2°54.267 12.972 3.616288 30.325563 4.511127
2005-05-24 06:54:01 51°16.254 2°54.264 12.9689 3.604381 30.214695 4.544836
2005-05-24 06:54:06 51°16.255 2°54.263 12.9701 3.612073 30.286311 4.612255
2005-05-24 06:54:11 51°16.255 2°54.26 12.9763 3.604698 30.217638 4.612255
2005-05-24 06:54:16 51°16.256 2°54.258 12.9713 3.617236 30.335017 4.578546
2005-05-24 06:54:21 51°16.256 2°54.256 12.974 3.617236 30.335017 4.578546
2005-05-24 06:54:26 51°16.256 2°54.254 12.9705 3.604908 30.218981 4.578546
2005-05-24 06:54:31 51°16.257 2°54.252 12.9723 3.60691 30.239474 4.578546
2005-05-24 06:54:36 51°16.257 2°54.25 12.9684 3.607121 30.240818 4.612255
2005-05-24 06:54:41 51°16.257 2°54.248 12.9672 3.614918 30.313426 4.645965
2005-05-24 06:54:46 51°16.257 2°54.246 12.9681 3.613759 30.302011 4.511127
2005-05-24 06:54:50 51°16.257 2°54.244 12.9742 3.613759 30.302011 4.511127
2005-05-24 06:54:56 51°16.258 2°54.242 12.9729 3.61692 30.330831 4.612255
2005-05-24 06:55:01 51°16.259 2°54.24 12.9776 3.604908 30.218981 4.578546
2005-05-24 06:55:06 51°16.259 2°54.238 12.9754 3.608069 30.249647 4.645965
2005-05-24 06:55:11 51°16.259 2°54.236 12.9758 3.609439 30.264259 4.578546
2005-05-24 06:55:16 51°16.258 2°54.234 12.9822 3.608175 30.253722 4.578546
2005-05-24 06:55:21 51°16.259 2°54.231 12.98 3.608175 30.253722 4.578546
2005-05-24 06:55:26 51°16.259 2°54.23 12.9815 3.611757 30.285846 4.645965
2005-05-24 06:55:31 51°16.258 2°54.227 12.9895 3.607016 30.239218 4.578546
2005-05-24 06:55:36 51°16.259 2°54.225 12.9933 3.613548 30.298809 4.578546
2005-05-24 06:55:41 51°16.259 2°54.223 12.9933 3.604803 30.216146 4.612255
2005-05-24 06:55:46 51°16.259 2°54.221 12.9969 3.605435 30.221413 4.544836
2005-05-24 06:55:51 51°16.259 2°54.219 12.9991 3.605435 30.221413 4.544836
2005-05-24 06:55:56 51°16.259 2°54.217 13.0016 3.616182 30.319621 4.645965
2005-05-24 06:56:01 51°16.259 2°54.215 13.0036 3.616077 30.318019 4.578546
2005-05-24 06:56:06 51°16.259 2°54.213 13.01 3.606489 30.228131 4.713383
2005-05-24 06:56:10 51°16.259 2°54.211 13.012 3.607858 30.235935 4.544836
2005-05-24 06:56:16 51°16.26 2°54.208 13.0117 3.614602 30.296848 4.544836
2005-05-24 06:56:21 51°16.259 2°54.206 13.0172 3.614602 30.296848 4.544836
2005-05-24 06:56:26 51°16.259 2°54.204 13.0203 3.611019 30.261026 4.511127
2005-05-24 06:56:31 51°16.26 2°54.202 13.0218 3.621767 30.357974 4.578546
2005-05-24 06:56:36 51°16.26 2°54.2 13.0265 3.622293 30.360397 4.578546
2005-05-24 06:56:41 51°16.259 2°54.198 13.0283 3.623558 30.369686 4.511127
2005-05-24 06:56:46 51°16.259 2°54.196 13.0317 3.623242 30.36302 4.511127
2005-05-24 06:56:51 51°16.26 2°54.194 13.0344 3.623242 30.36302 4.511127
2005-05-24 06:56:56 51°16.26 2°54.192 13.035 3.62419 30.370606 4.578546
2005-05-24 06:57:01 51°16.259 2°54.191 13.0358 3.624401 30.370085 4.544836
2005-05-24 06:57:06 51°16.259 2°54.189 13.0356 3.624084 30.363421 4.544836
2005-05-24 06:57:11 51°16.259 2°54.187 13.0362 3.624717 30.367444 4.544836
2005-05-24 06:57:16 51°16.259 2°54.185 13.0366 3.625454 30.371826 4.544836
2005-05-24 06:57:21 51°16.259 2°54.183 13.0396 3.625454 30.371826 4.544836
2005-05-24 06:57:26 51°16.259 2°54.181 13.0364 3.625349 30.367744 4.544836
2005-05-24 06:57:31 51°16.26 2°54.179 13.0385 3.625559 30.367224 4.511127
2005-05-24 06:57:36 51°16.259 2°54.177 13.0359 3.626192 30.371246 4.578546
2005-05-24 06:57:41 51°16.259 2°54.175 13.0322 3.626086 30.370266 4.511127
2005-05-24 06:57:46 51°16.259 2°54.173 13.0323 3.626086 30.369025 4.511127
2005-05-24 06:57:51 51°16.259 2°54.171 13.0243 3.626086 30.369025 4.511127
2005-05-24 06:57:55 51°16.259 2°54.17 13.0229 3.626718 30.373667 4.511127
2005-05-24 06:58:01 51°16.259 2°54.167 13.0191 3.626086 30.368405 4.511127
2005-05-24 06:58:06 51°16.259 2°54.166 13.0227 3.626402 30.370726 4.612255
2005-05-24 06:58:11 51°16.259 2°54.164 13.0178 3.626192 30.369385 4.578546
2005-05-24 06:58:16 51°16.259 2°54.162 13.0165 3.626824 30.376507 4.511127
2005-05-24 06:58:21 51°16.259 2°54.16 13.0176 3.626824 30.376507 4.511127
2005-05-24 06:58:26 51°16.259 2°54.158 13.0114 3.626508 30.375427 4.477418
2005-05-24 06:58:31 51°16.258 2°54.156 13.0047 3.626297 30.376568 4.544836
2005-05-24 06:58:36 51°16.258 2°54.155 13.0034 3.624506 30.362381 4.544836
2005-05-24 06:58:41 51°16.259 2°54.153 13.0046 3.62577 30.376008 4.578546
2005-05-24 06:58:46 51°16.259 2°54.15 13.0013 3.625454 30.373687 4.578546
2005-05-24 06:58:51 51°16.26 2°54.146 13.0005 3.625454 30.373687 4.578546
2005-05-24 06:58:55 51°16.261 2°54.141 12.9961 3.625876 30.37823 4.578546
2005-05-24 06:59:01 51°16.264 2°54.132 12.9947 3.62577 30.380352 4.511127
2005-05-24 06:59:06 51°16.267 2°54.123 12.9952 3.624927 30.374989 4.544836
2005-05-24 06:59:11 51°16.272 2°54.11 12.9925 3.619659 30.329675 4.578546
2005-05-24 06:59:15 51°16.276 2°54.099 12.9981 3.622083 30.353472 4.578546
2005-05-24 06:59:21 51°16.283 2°54.079 12.9904 3.622083 30.353472 4.578546
2005-05-24 06:59:26 51°16.289 2°54.063 12.9895 3.62419 30.37495 4.477418
2005-05-24 06:59:31 51°16.296 2°54.042 12.9881 3.624506 30.381619 4.544836
2005-05-24 06:59:36 51°16.304 2°54.02 12.996 3.623769 30.374751 4.477418
2005-05-24 06:59:41 51°16.312 2°53.998 12.9932 3.623663 30.376875 4.544836
2005-05-24 06:59:46 51°16.32 2°53.977 12.9925 3.623874 30.380079 4.612255
2005-05-24 06:59:51 51°16.33 2°53.951 12.9908 3.623874 30.380079 4.612255
2005-05-24 06:59:56 51°16.338 2°53.929 12.9847 3.623769 30.379719 4.443708
2005-05-24 07:00:01 51°16.349 2°53.902 12.9891 3.623453 30.378017 4.511127
2005-05-24 07:00:06 51°16.357 2°53.88 12.9875 3.623347 30.37952 4.477418
2005-05-24 07:00:10 51°16.365 2°53.859 12.9893 3.623663 30.381222 4.612255
2005-05-24 07:00:16 51°16.377 2°53.829 12.9859 3.620924 30.356331 4.544836
2005-05-24 07:00:21 51°16.386 2°53.804 12.9882 3.620924 30.356331 4.544836
2005-05-24 07:00:26 51°16.397 2°53.776 12.9842 3.623979 30.384166 4.612255
2005-05-24 07:00:30 51°16.404 2°53.758 12.9884 3.623979 30.385408 4.645965
2005-05-24 07:00:36 51°16.417 2°53.727 12.9863 3.623979 30.38603 4.713383
2005-05-24 07:00:41 51°16.427 2°53.702 12.9864 3.624401 30.390577 4.747093
2005-05-24 07:00:46 51°16.439 2°53.674 12.9833 3.624928 30.395484 4.780802
2005-05-24 07:00:51 51°16.449 2°53.649 12.983 3.624928 30.395484 4.780802
2005-05-24 07:00:56 51°16.461 2°53.625 12.9917 3.624612 30.393782 4.713383
2005-05-24 07:01:01 51°16.471 2°53.604 12.985 3.625981 30.406541 4.814512
2005-05-24 07:01:06 51°16.482 2°53.58 12.9845 3.626508 30.412071 4.814512
2005-05-24 07:01:11 51°16.495 2°53.554 12.9839 3.624085 30.387632 4.679674
2005-05-24 07:01:16 51°16.506 2°53.531 12.9829 3.626614 30.411187 4.713383
2005-05-24 07:01:21 51°16.517 2°53.51 12.9813 3.626614 30.411187 4.713383
2005-05-24 07:01:26 51°16.529 2°53.485 12.9847 3.62693 30.415997 4.679674
2005-05-24 07:01:30 51°16.539 2°53.464 12.9853 3.626719 30.41279 4.679674
2005-05-24 07:01:36 51°16.554 2°53.44 12.983 3.626298 30.408864 4.713383
2005-05-24 07:01:41 51°16.568 2°53.416 12.9855 3.625981 30.407163 4.679674
2005-05-24 07:01:46 51°16.58 2°53.397 12.9855 3.625033 30.398951 4.645965
2005-05-24 07:01:51 51°16.594 2°53.377 12.9879 3.625033 30.398951 4.645965
2005-05-24 07:01:56 51°16.608 2°53.357 12.9882 3.624822 30.39761 4.544836
2005-05-24 07:02:01 51°16.623 2°53.335 12.9834 3.624401 30.393684 4.544836
2005-05-24 07:02:06 51°16.635 2°53.317 12.9844 3.623137 30.381285 4.544836
2005-05-24 07:02:11 51°16.651 2°53.295 12.9765 3.624612 30.394404 4.544836
2005-05-24 07:02:15 51°16.662 2°53.279 12.9781 3.618922 30.34017 4.443708
2005-05-24 07:02:21 51°16.679 2°53.256 12.9658 3.618922 30.34017 4.443708
2005-05-24 07:02:26 51°16.691 2°53.239 12.9609 3.623663 30.384949 4.443708
2005-05-24 07:02:30 51°16.704 2°53.221 12.9566 3.623031 30.37844 4.376289
2005-05-24 07:02:35 51°16.719 2°53.202 12.9529 3.623137 30.379421 4.511127
2005-05-24 07:02:41 51°16.734 2°53.181 12.9395 3.623031 30.379682 4.376289
2005-05-24 07:02:46 51°16.747 2°53.161 12.9435 3.623769 30.389038 4.443708
2005-05-24 07:02:51 51°16.763 2°53.14 12.9314 3.623769 30.389038 4.443708
2005-05-24 07:02:55 51°16.774 2°53.124 12.9285 3.620924 30.366265 4.275161
2005-05-24 07:03:01 51°16.788 2°53.103 12.9282 3.622294 30.383996 4.241452
2005-05-24 07:03:06 51°16.802 2°53.084 12.9191 3.625771 30.42013 4.241452
2005-05-24 07:03:10 51°16.814 2°53.066 12.9086 3.627457 30.442694 4.072905
2005-05-24 07:03:16 51°16.829 2°53.045 12.9031 3.630091 30.471619 4.005486
2005-05-24 07:03:21 51°16.844 2°53.025 12.8946 3.630091 30.471619 4.005486
2005-05-24 07:03:26 51°16.855 2°53.008 12.8875 3.63125 30.486172 3.870648
2005-05-24 07:03:30 51°16.866 2°52.991 12.8837 3.632199 30.501261 3.836939
2005-05-24 07:03:35 51°16.878 2°52.973 12.8842 3.633463 30.517432 3.76952
2005-05-24 07:03:41 51°16.892 2°52.951 12.873 3.636941 30.555511 3.668392
2005-05-24 07:03:46 51°16.902 2°52.933 12.8684 3.638837 30.57948 3.600973
2005-05-24 07:03:51 51°16.915 2°52.912 12.8661 3.638837 30.57948 3.600973
2005-05-24 07:03:55 51°16.924 2°52.896 12.8649 3.640523 30.602119 3.466136
2005-05-24 07:04:01 51°16.938 2°52.872 12.8551 3.641999 30.620918 3.466136
2005-05-24 07:04:06 51°16.949 2°52.854 12.8513 3.643579 30.643221 3.365007
2005-05-24 07:04:11 51°16.963 2°52.832 12.8578 3.64084 30.622018 3.466136
2005-05-24 07:04:16 51°16.974 2°52.815 12.8513 3.645792 30.671447 3.365007
2005-05-24 07:04:21 51°16.989 2°52.796 12.8455 3.645792 30.671447 3.365007
2005-05-24 07:04:26 51°17.002 2°52.781 12.8503 3.646635 30.684992 3.331298
2005-05-24 07:04:31 51°17.019 2°52.764 12.8318 3.647373 30.696927 3.365007
2005-05-24 07:04:36 51°17.032 2°52.75 12.8318 3.648743 30.71415 3.19646
2005-05-24 07:04:41 51°17.049 2°52.734 12.8251 3.649375 30.723216 3.398717
2005-05-24 07:04:46 51°17.062 2°52.72 12.8231 3.648637 30.717577 3.263879
2005-05-24 07:04:51 51°17.079 2°52.704 12.8132 3.648637 30.717577 3.263879
2005-05-24 07:04:56 51°17.093 2°52.688 12.8062 3.650534 30.737845 3.129042
2005-05-24 07:05:01 51°17.108 2°52.669 12.8057 3.651166 30.745023 3.061623
2005-05-24 07:05:06 51°17.121 2°52.654 12.8014 3.65222 30.758672 3.19646
2005-05-24 07:05:11 51°17.136 2°52.634 12.7975 3.652853 30.770908 3.162751
2005-05-24 07:05:16 51°17.148 2°52.618 12.7971 3.653274 30.780543 3.095332